GFSSGP_700_rhum_084.txt.gz
RH
10 10 10 10 8 9 10 10 17 20 21 20 19 18 18 18 18 17 18 17 24 36 40 42 37 36 29 24 22 20 21 42 61 53 50 62 53 57 51 52 43 39 38 46 20 16 11 7 19
10 11 11 10 10 8 7 12 21 22 23 20 19 19 19 18 18 18 17 18 22 27 33 36 31 27 26 28 23 25 28 54 73 69 68 62 45 47 45 33 32 34 41 46 16 11 7 6 8
9 12 12 11 11 7 7 12 20 22 23 23 22 22 22 19 19 20 18 20 25 31 28 30 29 29 29 28 28 26 32 46 84 77 78 67 40 46 59 43 30 32 40 26 16 7 6 7 10
9 12 12 13 10 5 5 14 23 19 25 26 24 23 21 20 21 20 19 20 30 30 30 31 34 30 28 29 32 23 31 58 86 87 82 78 52 60 45 32 30 39 31 20 13 6 7 10 11
8 13 13 13 10 4 5 7 11 9 18 23 23 23 22 22 23 20 21 24 27 32 33 36 31 34 33 31 34 22 32 77 91 90 76 85 75 82 47 56 50 40 28 24 8 8 10 11 11
10 12 14 14 11 6 5 6 9 10 16 22 22 22 22 23 24 21 23 25 30 35 35 31 32 35 34 28 35 31 34 67 97 85 81 72 80 86 84 74 61 39 26 10 9 10 11 12 11
10 15 12 12 13 8 5 6 8 11 24 24 23 22 22 25 22 22 24 26 31 32 28 30 33 37 32 34 26 28 27 43 70 83 97 98 84 86 88 78 76 67 27 22 12 12 12 13 13
11 21 21 18 16 7 6 6 7 10 21 27 26 30 28 28 24 23 23 27 30 26 28 32 33 30 31 34 20 22 26 35 50 62 78 89 89 91 89 92 98 95 55 29 13 13 14 14 14
12 24 22 20 11 6 5 6 6 7 12 26 28 30 29 34 27 23 24 25 25 27 30 31 30 30 31 32 18 17 22 26 45 55 70 77 93 97 100 97 93 96 85 41 16 14 15 15 15
18 17 18 13 10 10 8 7 7 8 9 24 25 24 29 31 33 29 25 25 28 29 32 31 33 30 30 31 17 18 29 50 62 65 70 84 95 98 99 99 99 98 95 27 17 16 17 17 16
27 25 22 19 17 12 12 10 8 8 7 11 24 23 23 25 25 27 25 25 27 26 29 31 34 30 30 32 19 17 29 51 74 79 85 93 100 99 95 95 99 98 97 37 20 18 18 18 18
30 30 29 26 24 19 19 18 13 9 8 8 21 23 22 26 28 30 26 24 23 24 28 29 34 30 28 27 14 16 24 35 76 86 98 98 98 99 99 87 100 99 89 33 18 19 19 18 20
37 31 28 26 26 26 24 23 19 14 10 6 14 22 23 21 23 27 28 23 21 23 26 28 36 30 28 17 11 16 21 33 76 96 100 99 85 87 100 94 98 99 47 20 19 20 20 20 22
36 38 35 30 27 28 30 27 27 21 16 10 8 20 23 21 21 21 24 22 22 25 26 29 40 39 32 25 10 15 22 33 70 91 95 81 81 96 99 99 99 99 53 37 23 28 32 25 24
28 31 36 31 29 28 29 26 23 23 21 16 14 18 23 21 21 22 22 22 21 22 26 27 38 43 40 28 13 17 26 34 61 87 79 83 91 94 95 98 98 97 46 52 39 29 42 28 35
29 35 35 21 22 26 24 10 15 21 25 21 20 22 24 22 22 21 21 21 21 21 22 27 39 43 40 26 16 22 31 36 69 94 87 85 96 91 97 100 90 51 27 36 28 24 22 26 28
36 37 37 37 29 29 31 21 34 28 33 33 29 27 21 22 22 21 21 20 20 21 26 26 42 45 42 21 19 36 39 47 74 86 96 95 100 99 100 99 92 54 29 24 24 24 24 24 26
30 42 44 47 46 45 48 29 32 38 39 42 35 28 25 21 20 21 22 21 20 22 28 29 42 48 46 17 39 54 51 68 88 83 99 99 100 99 100 99 97 51 29 30 54 64 30 25 27
26 32 44 40 44 43 41 37 24 42 44 43 36 33 28 21 21 21 21 20 24 27 29 31 44 52 40 21 50 63 67 78 85 96 100 100 100 100 100 84 60 44 32 31 34 47 28 26 32
47 47 43 37 34 55 53 37 20 30 30 39 35 35 30 25 22 21 22 24 25 29 35 41 46 56 24 37 61 68 75 84 95 99 98 100 99 100 64 45 38 34 43 33 41 30 30 36 32
50 56 55 58 61 59 53 33 22 21 25 27 33 34 29 27 28 22 23 25 25 31 36 41 51 56 17 42 61 69 78 91 98 99 100 98 99 100 81 51 45 60 67 45 50 51 34 32 30
71 60 67 70 66 74 69 77 36 28 30 31 28 30 28 33 30 24 23 25 26 32 37 44 54 47 14 45 63 68 74 91 96 100 100 100 99 98 90 68 79 95 88 57 45 45 34 38 34
72 75 58 59 89 88 78 74 40 45 36 30 27 28 26 34 29 23 25 24 27 33 40 48 53 35 13 38 64 66 71 84 98 100 99 100 99 100 95 72 98 97 88 78 58 92 83 56 36
57 70 66 78 86 87 67 67 61 45 48 42 34 24 29 34 26 25 27 26 29 34 41 51 51 31 12 22 58 64 68 78 88 100 98 99 100 100 99 100 100 100 100 100 94 91 95 59 50
69 83 82 92 94 87 53 70 61 40 38 41 37 30 34 34 32 30 30 28 26 32 37 52 50 28 12 18 32 58 70 77 89 100 100 99 100 100 100 99 99 100 100 100 100 98 90 81 87
77 84 73 93 92 84 68 63 47 64 50 40 37 31 35 34 31 30 28 27 24 29 36 49 51 22 12 19 23 31 59 76 85 91 100 100 99 100 100 100 100 100 100 100 98 98 98 97 98
96 95 76 96 82 95 73 59 63 77 70 58 40 30 33 32 29 27 27 27 23 34 39 50 46 18 12 19 23 29 41 66 80 85 88 100 100 100 100 99 99 100 99 100 99 98 98 98 99
84 96 99 96 99 96 71 72 87 82 71 58 47 32 30 30 24 28 26 22 24 36 44 57 32 14 13 19 24 27 37 56 71 86 87 86 92 99 100 100 100 100 100 100 99 99 100 99 100
88 94 96 94 98 98 98 76 91 86 91 70 51 39 27 25 26 25 26 22 32 39 53 58 25 16 14 21 25 27 30 45 67 81 87 85 81 84 87 90 98 100 91 98 88 96 86 91 100
91 94 96 99 96 98 100 72 76 72 70 78 66 39 30 26 26 27 25 31 36 46 59 52 23 21 16 19 24 27 29 30 42 74 78 77 82 84 83 86 94 99 100 94 97 100 100 100 99

GFSSGP_700_rhum_087.txt.gz
RH
9 10 11 11 9 8 8 7 9 18 21 20 20 19 18 19 18 18 18 18 18 23 33 37 36 32 29 25 24 23 20 19 26 48 51 45 50 64 82 76 71 59 53 52 45 23 29 21 17
7 10 12 11 10 9 9 6 7 10 20 20 20 20 20 19 19 18 20 18 20 22 23 26 28 28 28 26 28 24 25 24 35 60 58 56 66 87 62 70 58 58 59 48 52 22 16 13 12
5 9 12 12 12 11 7 6 18 23 23 22 23 22 22 20 19 19 21 19 21 23 25 27 30 31 26 24 26 30 25 32 41 64 69 66 60 49 54 53 50 56 55 44 51 22 13 8 11
5 8 11 12 11 6 5 8 20 22 20 27 26 24 22 20 20 21 22 20 21 24 27 29 32 31 32 29 29 31 28 27 44 73 78 72 73 62 42 73 75 67 46 51 59 26 12 8 10
6 9 12 12 10 6 5 8 21 22 20 19 25 24 22 20 20 22 23 21 22 26 29 34 30 31 32 30 27 29 31 26 36 60 78 80 79 69 51 77 86 58 62 43 42 28 12 10 13
7 9 12 12 10 6 5 6 7 8 8 9 20 24 22 21 21 22 23 22 26 28 32 34 28 31 30 31 30 23 25 29 34 68 89 74 81 82 69 80 93 72 68 51 39 26 9 13 14
9 9 8 9 12 8 5 6 7 7 8 14 22 23 22 21 22 23 24 24 24 28 34 28 30 30 30 29 30 26 16 24 33 53 71 72 87 85 76 81 86 89 68 49 48 22 12 15 15
15 14 16 17 20 8 6 6 7 8 8 12 26 26 25 23 24 26 25 25 25 28 27 28 30 30 32 30 30 27 16 18 25 42 52 96 99 96 84 83 94 91 75 45 29 26 17 14 15
22 28 28 23 18 9 8 7 8 8 8 8 20 28 28 28 27 27 26 26 24 25 27 29 30 31 33 31 30 30 16 15 22 30 44 64 89 100 99 100 98 97 92 87 46 42 18 16 17
24 27 30 24 18 15 14 12 10 11 10 9 11 26 28 31 32 30 27 27 25 26 28 30 30 33 33 31 31 32 23 15 19 33 41 56 75 83 100 94 98 99 98 95 92 47 19 20 20
30 28 26 25 25 23 21 17 14 12 11 8 8 21 26 26 27 29 28 30 27 30 27 26 29 32 34 31 28 26 23 17 17 28 46 66 72 80 96 98 97 99 99 97 95 57 23 19 18
32 31 30 31 30 29 27 24 22 20 18 12 7 12 23 24 25 26 25 26 29 25 25 29 28 31 35 30 30 22 15 15 17 22 43 71 80 95 100 97 98 98 100 99 92 48 25 18 18
37 35 34 32 31 29 28 28 26 26 24 20 12 7 17 23 24 27 26 26 24 24 22 26 29 33 40 38 37 30 14 14 20 24 43 77 89 97 100 98 94 96 99 100 79 48 20 20 21
39 40 40 39 39 36 34 28 29 22 23 24 22 11 8 17 23 22 26 23 22 22 23 26 29 35 45 45 43 35 16 15 21 28 42 77 98 100 98 98 97 86 100 100 95 28 21 23 22
36 40 40 36 33 33 31 27 27 20 21 21 20 20 14 9 20 23 21 21 21 22 23 24 31 37 40 50 45 37 20 19 21 28 52 80 98 100 96 89 94 91 100 100 68 55 27 24 23
27 29 36 20 15 14 19 24 24 18 15 16 22 22 21 16 12 24 21 21 22 22 22 25 32 40 40 51 48 39 24 26 31 36 53 79 92 86 96 94 96 100 100 100 42 27 27 30 26
24 26 21 25 32 26 26 29 39 14 15 12 16 24 29 27 17 20 22 21 21 21 21 23 32 42 40 50 50 41 23 41 41 46 68 86 86 90 90 98 100 100 100 89 40 27 33 41 33
14 17 23 33 26 22 17 14 29 19 14 14 17 20 28 33 27 18 22 22 21 20 21 23 30 39 38 51 53 32 35 53 49 52 80 92 91 96 98 96 98 100 100 99 34 36 33 34 28
19 29 41 34 24 22 17 11 14 11 12 10 12 16 18 28 29 21 21 21 21 20 20 22 28 30 36 50 60 23 55 64 56 64 96 95 99 100 99 100 98 100 98 78 33 36 27 25 27
42 41 43 40 32 39 31 8 14 10 9 11 11 9 14 23 28 26 22 22 21 22 22 26 31 37 40 57 58 23 60 72 80 90 95 100 99 98 100 99 99 100 93 53 28 28 26 27 26
45 47 48 54 56 46 49 18 13 14 13 10 10 14 16 17 29 26 21 21 21 22 24 29 34 40 48 63 41 35 63 72 85 90 100 100 100 99 98 100 100 99 97 40 30 37 67 67 42
62 51 68 74 75 59 64 47 33 24 12 26 38 32 24 21 28 24 29 27 23 23 25 31 37 43 52 64 20 48 65 67 80 93 100 100 100 100 100 99 100 85 75 38 30 31 33 47 39
83 68 67 66 67 88 76 78 51 20 34 40 47 40 34 25 28 31 33 25 23 25 25 33 39 49 56 50 14 55 66 66 78 96 100 100 100 100 100 100 86 54 43 46 44 40 49 49 40
68 61 56 74 89 80 66 66 50 31 44 35 38 46 40 34 28 35 28 25 26 25 27 35 43 49 59 27 15 50 67 66 80 96 100 100 100 100 89 58 45 38 65 72 48 43 48 49 42
67 76 74 82 81 60 64 74 47 44 54 58 41 38 42 36 36 33 25 27 26 25 28 34 45 52 56 15 17 40 67 70 77 90 100 99 100 100 95 96 87 79 71 52 68 54 49 53 70
74 78 67 64 74 67 75 65 55 71 88 83 72 45 37 39 35 33 30 29 27 27 26 33 43 56 45 14 20 30 54 76 76 92 100 100 100 100 100 100 98 94 99 99 99 98 78 79 96
88 93 81 93 85 77 63 58 60 76 79 72 68 58 35 36 35 32 31 30 30 28 25 33 42 60 34 15 20 26 37 67 79 81 96 100 99 100 100 100 100 100 99 100 100 100 99 96 99
87 88 98 94 90 87 57 61 57 79 75 66 61 57 46 30 33 31 32 31 28 28 27 36 46 65 18 18 21 25 34 48 78 83 88 98 99 100 100 97 98 98 100 100 100 100 100 100 100
91 91 95 96 95 84 77 54 90 95 81 70 54 54 63 35 34 31 28 27 27 28 35 43 57 50 14 19 25 25 30 42 69 83 86 91 98 97 97 98 100 100 99 100 99 100 100 98 99
88 89 93 96 94 99 98 71 73 74 62 52 54 52 49 46 32 30 27 28 27 31 38 47 60 33 14 21 26 28 30 32 63 77 86 82 83 89 94 98 100 100 100 100 97 100 86 98 93

GFSSGP_700_rhum_093.txt.gz
RH
3 5 8 11 21 17 10 8 7 11 14 16 16 15 16 18 21 28 30 20 19 19 19 18 20 24 26 22 18 17 21 21 17 16 28 42 47 52 76 84 92 83 75 59 46 62 64 50 39
5 4 7 19 20 12 10 8 8 11 13 20 17 13 15 20 25 39 21 18 20 19 20 19 20 23 22 23 20 19 18 20 18 19 29 39 47 54 80 89 92 91 74 67 63 50 55 56 36
6 5 19 19 15 15 8 7 9 10 17 18 20 21 20 20 26 30 51 20 20 20 20 23 24 26 25 22 22 19 18 21 20 21 23 38 49 60 79 95 98 83 70 55 62 53 52 27 24
5 8 23 18 15 11 11 9 9 11 20 17 16 20 25 31 46 39 44 20 21 20 20 23 26 30 24 24 24 21 22 26 24 24 24 36 49 60 72 88 84 65 68 60 62 63 63 27 18
13 24 20 15 15 13 10 11 12 14 19 20 20 17 22 30 36 24 39 20 22 21 20 24 26 29 24 24 23 23 18 22 29 25 30 44 55 66 78 76 62 62 59 62 61 58 65 33 15
36 29 21 18 16 13 12 10 14 18 19 22 19 18 20 28 30 27 21 20 22 22 21 24 26 28 26 24 23 25 22 15 25 30 33 53 70 67 65 68 65 69 68 80 67 71 66 36 16
41 29 24 20 17 13 11 14 14 15 14 18 17 16 20 34 44 25 21 21 22 22 21 22 26 26 27 28 24 26 24 16 15 26 44 57 72 64 70 72 73 77 75 86 75 70 52 36 26
42 36 28 22 19 16 12 14 15 15 16 12 13 16 18 28 32 17 22 22 21 22 22 23 26 26 27 28 27 26 26 23 14 21 43 60 76 83 78 75 78 80 80 80 81 76 74 50 37
46 38 30 24 21 19 17 17 15 16 16 14 19 19 28 35 33 9 18 22 22 22 22 23 25 26 28 30 29 28 26 24 20 14 23 37 50 64 76 76 83 90 91 91 90 91 84 55 35
47 41 31 24 22 20 20 19 18 20 20 19 18 24 25 27 21 23 23 22 22 22 23 23 25 27 29 30 30 30 26 23 19 16 16 28 39 52 68 83 91 92 94 96 97 98 94 62 40
41 41 34 27 26 26 26 22 21 20 20 19 19 23 22 22 26 27 24 24 23 23 24 24 25 28 32 30 30 32 26 26 26 15 15 20 24 39 63 72 80 86 100 99 96 98 96 86 52
38 37 40 35 31 32 33 30 27 26 24 24 24 24 23 24 27 33 21 28 34 38 24 23 26 30 36 33 29 33 32 30 28 22 14 14 27 38 49 58 73 86 94 98 94 99 100 97 66
35 36 37 40 36 38 35 32 30 29 29 28 28 29 28 28 28 23 21 28 36 66 36 25 24 29 29 30 29 34 39 38 33 28 23 20 14 24 34 53 73 83 81 93 99 100 98 100 87
25 27 29 32 34 34 39 38 37 33 34 34 32 34 34 35 34 22 15 29 36 47 69 28 24 26 24 26 29 34 42 45 42 38 36 23 16 16 26 69 100 97 95 100 100 98 100 99 96
41 40 41 38 38 38 40 39 38 35 33 33 33 33 34 34 34 35 12 29 34 41 36 38 26 26 21 25 28 35 39 45 50 47 43 30 21 29 38 59 91 90 98 100 99 98 100 99 96
38 34 27 22 24 26 33 31 29 24 26 30 29 29 31 31 32 32 32 26 30 38 30 27 26 25 21 24 27 32 40 41 47 54 53 34 30 27 41 55 100 97 99 98 96 100 100 99 98
34 28 23 19 20 28 28 27 22 24 29 32 31 31 30 31 30 30 32 29 25 35 42 27 27 24 21 24 26 31 38 41 42 53 59 32 37 38 37 64 85 100 97 98 97 100 100 98 98
19 20 19 19 17 20 34 31 26 24 28 28 25 24 25 27 28 30 32 32 29 30 44 32 26 24 21 24 25 30 33 41 42 48 63 32 43 49 44 64 85 96 91 98 99 100 100 98 97
26 22 21 18 15 24 27 28 21 19 19 18 19 19 20 19 21 25 30 35 36 35 47 34 21 21 21 21 22 24 25 36 46 50 65 36 50 51 50 67 91 100 89 98 100 99 100 98 95
35 29 33 24 18 18 18 26 24 21 22 23 23 22 20 20 20 22 24 32 40 42 47 22 22 22 21 21 22 24 27 36 47 56 63 33 53 56 60 77 86 86 94 99 100 99 99 100 99
38 36 31 25 25 27 30 27 25 22 23 23 22 23 26 28 29 28 26 28 40 46 41 18 21 23 22 21 23 23 30 38 44 58 56 36 66 67 57 81 82 85 98 100 99 99 99 99 97
43 36 34 37 34 30 36 23 19 20 20 24 29 43 54 60 53 48 36 33 36 44 44 27 22 23 22 22 23 24 38 41 52 64 27 55 68 78 73 73 89 94 88 100 98 98 98 97 97
46 40 37 38 43 44 35 31 22 20 17 26 44 59 64 70 69 62 46 41 37 40 53 28 23 23 22 21 22 34 38 48 59 33 27 63 67 79 98 92 95 98 98 100 98 99 97 97 93
42 49 56 57 52 44 35 28 19 18 31 50 65 66 70 74 79 73 60 50 40 41 55 28 22 22 20 20 29 38 47 56 50 16 46 62 63 84 99 99 99 100 100 99 100 100 98 93 85
58 66 54 50 42 36 23 24 21 33 57 67 66 69 75 83 85 83 74 52 46 48 44 21 22 24 22 24 37 42 50 55 16 21 52 62 79 91 99 97 100 97 99 99 98 100 97 98 81
56 54 40 38 36 27 27 31 22 41 62 63 69 75 82 91 95 90 83 85 74 68 21 26 30 27 26 33 42 48 48 25 16 23 50 64 82 100 100 100 100 99 99 100 100 100 99 76 70
53 55 44 46 54 48 42 30 55 54 72 72 66 76 87 65 51 72 41 46 36 33 29 32 28 27 30 40 46 46 44 14 18 29 48 71 84 99 99 100 99 99 100 99 100 99 80 62 61
61 49 58 55 51 41 22 18 49 74 69 60 60 80 88 37 48 33 40 75 46 30 28 27 26 27 36 42 52 52 34 14 22 28 51 73 86 98 99 100 99 100 100 100 100 98 98 84 57
55 73 61 56 41 42 36 39 71 62 52 50 56 80 65 35 39 40 38 49 54 32 32 30 30 29 32 43 53 49 20 18 23 30 57 76 89 98 100 100 100 100 100 100 100 100 99 90 65
54 57 64 58 58 48 61 62 75 63 46 54 67 88 72 40 40 44 41 40 37 33 34 34 32 30 36 46 55 36 15 21 23 39 64 77 93 97 99 100 100 100 100 100 99 92 84 98 98

GFSSGP_700_rhum_099.txt.gz
RH
6 5 4 4 6 9 9 9 3 6 8 10 10 10 12 16 19 30 42 50 46 40 26 23 23 16 14 14 15 14 14 14 17 20 20 16 33 46 58 65 64 68 54 43 47 60 70 58 47
17 6 5 6 14 15 18 7 10 10 13 13 11 10 12 15 19 22 34 49 40 22 22 20 18 16 15 14 15 12 7 8 11 16 17 15 32 46 49 65 76 78 74 65 49 44 60 62 51
27 12 7 7 10 11 13 7 9 12 13 12 12 13 12 12 14 21 32 38 33 23 20 18 18 17 16 14 14 14 12 9 11 14 15 15 29 45 48 65 77 81 79 71 62 50 51 55 58
32 18 13 22 14 10 10 12 9 12 14 14 13 14 12 13 10 27 32 40 42 37 30 20 18 18 17 15 16 14 13 15 16 17 16 17 28 41 47 58 72 75 76 70 68 62 59 53 32
35 23 17 18 16 16 14 14 12 15 14 12 17 16 18 20 20 25 32 36 45 36 29 20 19 19 17 16 17 18 14 13 12 18 21 19 22 33 46 57 74 77 81 68 66 74 68 67 43
35 31 37 31 24 22 20 16 14 13 13 12 16 18 14 20 21 20 21 29 38 41 28 20 20 19 18 18 19 19 18 15 13 12 21 22 23 30 39 58 76 85 71 71 66 78 71 70 58
32 32 30 32 31 26 20 18 20 18 15 14 12 19 19 17 27 31 31 25 24 31 22 21 21 20 20 19 20 20 20 18 15 11 15 24 24 30 42 56 71 81 79 69 76 78 78 77 66
36 40 40 40 38 31 25 20 21 20 18 14 13 15 19 18 16 26 32 32 26 25 24 22 22 21 21 21 20 22 21 20 18 15 12 17 27 32 41 55 63 63 73 78 82 85 94 89 80
59 65 54 49 43 34 32 28 20 21 20 18 14 14 14 15 17 26 45 41 35 23 25 22 22 22 22 23 22 23 22 22 20 18 14 12 23 39 49 61 59 63 71 78 81 96 85 97 90
64 58 51 45 41 39 34 31 28 25 22 18 15 14 14 15 16 21 28 34 30 23 22 21 22 23 23 23 24 25 22 23 21 20 18 13 13 22 44 61 72 77 77 80 76 73 89 94 100
20 38 35 33 44 40 39 32 29 27 26 23 17 17 16 17 18 17 18 24 30 27 20 12 18 22 23 23 25 26 24 24 23 21 20 20 13 14 23 37 47 51 67 75 80 82 81 78 97
30 26 28 28 33 38 39 36 32 30 30 28 25 22 19 21 20 19 21 22 21 22 22 14 11 22 23 24 25 28 27 24 24 23 24 24 20 16 14 19 30 40 53 65 73 88 95 99 94
29 28 33 33 31 30 31 32 32 29 32 30 29 25 24 24 24 22 21 22 24 22 18 11 8 22 25 25 24 28 28 26 26 24 25 28 28 27 24 17 21 24 37 44 62 80 80 88 86
31 28 25 25 30 29 28 30 33 33 33 32 29 25 25 25 26 26 24 25 24 23 29 26 9 15 30 27 26 27 28 28 26 25 28 33 35 36 38 37 31 27 22 37 51 66 69 88 97
37 34 32 30 29 28 25 24 29 28 23 22 27 24 24 24 25 26 26 25 24 23 22 35 45 24 32 33 32 27 28 29 26 26 29 38 43 46 47 48 45 34 36 34 42 54 88 92 91
42 44 44 23 29 26 27 26 23 23 25 20 21 19 20 20 18 22 28 29 27 26 22 26 38 42 40 38 39 29 29 29 28 28 28 34 39 41 49 55 55 38 38 52 68 58 77 91 89
30 46 40 30 34 33 32 32 32 29 25 22 24 25 22 25 26 28 29 30 31 31 28 29 32 38 42 42 30 37 32 29 30 27 29 33 39 40 44 47 55 56 38 50 66 67 82 94 96
33 49 41 38 12 30 33 31 27 22 23 22 23 26 28 31 27 30 30 29 30 32 33 34 26 34 40 40 28 28 35 34 32 27 26 33 34 39 46 49 50 62 40 49 59 72 96 95 99
16 32 38 32 30 28 27 22 22 20 22 24 21 22 27 28 31 30 31 31 31 31 33 34 32 30 36 35 33 25 24 28 30 26 27 30 29 35 45 52 53 63 39 53 62 84 85 99 99
32 31 28 27 25 28 28 26 25 22 20 21 21 25 26 24 25 29 30 30 30 31 32 34 34 30 30 32 33 31 27 27 30 29 27 27 28 37 44 51 55 64 41 57 76 83 94 98 100
43 37 27 26 30 29 27 28 25 24 24 19 18 21 18 21 20 16 19 22 26 27 29 31 34 31 31 33 32 33 29 31 31 27 25 24 24 32 44 52 58 61 43 65 68 81 92 100 98
26 30 37 26 27 34 32 37 32 26 24 21 18 26 21 20 20 24 30 25 24 21 22 23 30 33 32 33 32 28 26 32 26 24 22 25 28 32 43 50 62 40 46 67 60 81 94 98 99
40 26 46 34 29 37 36 36 35 28 27 28 28 23 25 26 33 60 41 28 26 27 26 27 25 32 34 36 33 32 35 32 23 22 23 24 29 39 48 55 55 26 54 71 71 72 91 95 99
39 44 32 86 46 49 42 42 38 33 24 30 43 54 55 60 58 58 54 35 30 25 28 27 33 30 32 36 37 40 29 28 24 23 23 23 36 42 47 53 21 39 68 69 77 83 99 96 100
43 43 75 80 75 69 43 45 43 31 23 32 62 47 52 63 72 72 70 70 69 44 34 30 37 38 38 38 40 42 27 22 24 24 23 27 37 45 49 18 26 52 61 73 80 98 94 98 99
51 44 81 79 78 60 49 44 40 36 33 50 88 54 64 74 72 64 72 82 80 67 51 45 40 38 40 40 40 44 27 23 24 25 25 36 43 43 16 22 34 49 71 84 95 96 96 99 100
66 68 38 99 64 89 65 52 42 54 53 81 92 81 81 71 61 45 71 88 77 67 59 50 44 44 51 45 52 45 29 26 27 28 33 42 44 17 22 28 42 63 81 90 92 99 98 98 100
63 56 68 96 94 88 82 93 93 99 74 83 99 81 65 60 47 46 70 82 82 71 87 73 54 57 63 60 58 35 31 36 33 36 46 53 20 22 21 40 66 82 90 100 99 98 100 100 100
67 56 74 96 68 97 95 99 98 97 98 99 100 76 59 42 38 42 78 100 92 71 79 81 87 80 71 63 48 38 37 37 42 49 57 25 22 22 37 70 84 86 100 100 100 100 98 99 100
95 79 86 70 67 61 76 97 98 98 98 99 95 78 72 49 54 57 88 99 98 94 73 69 60 73 68 57 81 50 46 43 46 56 38 20 24 29 68 85 95 100 98 100 99 100 98 100 99

GFSSGP_700_rhum_102.txt.gz
RH
13 5 4 4 5 6 7 3 2 2 5 17 16 15 13 12 11 18 20 28 37 38 34 30 32 28 18 14 13 14 15 25 34 35 30 23 18 35 48 53 56 59 52 41 45 55 69 67 62
23 13 6 6 6 6 5 4 4 7 16 16 18 16 15 14 13 12 19 25 45 46 29 23 24 24 21 15 14 14 11 8 12 16 19 19 18 34 46 59 63 64 59 50 42 52 66 61 53
30 22 11 7 8 8 7 8 7 6 12 14 18 16 14 14 13 13 15 19 28 44 22 21 19 20 20 15 14 13 13 9 8 12 16 16 18 39 49 62 69 70 69 68 58 51 57 61 57
33 27 15 18 10 12 12 10 10 8 10 16 17 15 15 13 12 11 13 27 35 31 21 24 26 24 20 16 14 13 14 12 13 13 14 16 19 41 50 59 71 73 73 73 69 60 55 55 51
34 31 21 18 18 18 16 16 14 13 13 14 15 15 16 14 11 13 13 20 38 38 37 33 28 21 18 18 16 14 15 15 13 15 18 16 18 37 48 55 70 64 67 76 70 73 65 60 52
35 31 26 24 21 20 20 20 19 16 16 20 19 16 17 15 15 15 21 23 26 30 30 30 30 23 19 19 18 16 16 17 14 12 16 20 19 25 36 50 62 69 81 80 74 75 78 72 66
21 30 27 26 26 25 20 21 20 21 24 23 18 16 17 16 16 18 19 28 38 33 33 34 29 22 20 20 19 17 17 17 18 14 11 17 22 22 30 42 53 76 92 75 76 77 80 76 65
16 29 28 29 30 25 18 23 24 25 27 25 17 19 19 19 18 16 20 24 22 28 32 28 26 21 21 21 20 19 18 18 19 17 13 12 19 24 29 36 41 63 81 78 76 76 69 70 62
18 35 34 28 23 23 20 22 20 28 30 27 21 16 16 20 19 19 19 19 18 22 27 27 27 22 22 22 21 21 20 19 19 19 17 13 12 24 31 37 45 60 66 74 76 85 86 74 72
24 26 26 20 23 24 25 24 22 28 28 26 23 18 19 14 15 16 16 17 24 29 32 25 25 23 23 23 23 23 22 21 19 20 19 17 13 15 32 46 56 61 63 66 76 88 90 88 81
17 24 20 20 20 24 28 25 28 30 32 32 27 25 30 41 26 18 25 25 25 30 28 26 22 23 24 25 25 24 24 23 23 20 20 20 18 14 14 29 42 50 61 75 76 82 83 83 88
22 14 15 20 24 30 26 23 30 35 36 36 31 27 29 29 31 29 25 21 19 21 22 23 21 22 24 26 27 27 27 25 26 22 21 21 21 20 16 13 18 23 41 49 57 72 78 85 87
15 16 19 22 25 27 28 27 30 28 30 34 34 29 26 29 28 28 33 29 24 21 22 22 19 18 21 23 30 29 28 27 28 25 21 22 23 26 25 24 21 18 19 24 34 54 73 82 99
40 32 23 21 22 27 30 32 33 26 28 28 30 30 29 26 25 27 28 28 27 24 23 20 18 18 20 23 29 34 31 30 31 31 23 23 25 30 32 33 35 37 34 30 27 39 50 65 91
34 26 23 15 23 26 30 28 29 27 28 26 25 23 24 28 28 24 25 27 26 28 25 24 20 19 20 25 44 39 37 37 32 34 28 25 27 31 38 41 45 47 51 38 35 35 36 54 73
27 31 30 8 18 24 33 32 12 26 27 27 27 20 19 17 26 26 26 25 25 25 28 25 25 22 22 27 39 63 48 40 39 35 32 28 27 31 39 37 44 50 55 57 42 41 58 54 52
28 24 28 9 21 34 38 39 14 22 24 26 27 27 21 20 17 18 24 22 24 26 25 27 27 26 24 27 35 50 67 67 45 40 34 32 29 29 32 34 40 44 48 59 58 42 52 66 67
16 29 26 26 8 35 34 34 24 24 28 30 29 25 21 22 24 28 21 22 22 18 24 28 27 28 27 28 38 45 61 56 54 46 36 34 32 31 33 33 42 47 52 55 59 42 47 62 78
54 52 38 26 16 26 27 32 30 29 30 26 22 24 22 23 22 27 31 28 30 26 28 31 32 33 34 35 36 41 59 36 34 40 42 35 33 33 31 33 39 45 57 59 60 44 51 64 78
36 50 51 47 43 36 27 27 27 26 28 27 24 21 22 22 23 23 27 30 28 30 30 31 32 33 34 35 31 37 37 42 46 38 37 42 36 32 28 31 38 51 60 59 60 42 57 72 83
44 45 48 47 41 40 38 30 25 30 29 26 26 23 21 21 22 22 26 24 28 28 31 31 32 32 34 34 30 32 39 51 45 37 36 33 33 32 28 31 33 49 60 59 63 38 61 76 92
43 44 42 41 38 40 41 40 31 31 33 22 21 22 21 21 19 20 24 24 26 26 29 31 30 32 32 35 35 30 32 36 34 34 35 35 33 30 29 28 36 47 53 55 63 31 64 73 93
26 33 44 40 41 54 39 55 39 36 34 31 22 24 25 25 24 31 22 20 20 23 25 29 25 29 28 33 34 32 35 45 51 37 31 34 33 30 28 30 38 49 52 58 58 27 67 65 84
45 46 42 49 57 77 57 70 47 40 38 29 35 51 62 47 36 43 32 36 26 39 27 24 23 23 30 27 31 36 43 45 39 38 36 31 25 26 27 30 43 51 54 61 23 42 69 74 98
36 52 64 82 83 71 46 54 44 41 38 37 49 57 99 71 45 48 36 54 54 46 30 28 26 25 28 28 30 34 34 37 38 41 32 29 26 24 24 40 52 60 55 22 29 55 73 81 81
50 65 70 81 81 65 50 52 54 49 69 61 60 73 100 84 58 65 70 69 57 43 32 30 30 32 32 43 45 39 39 39 41 42 29 27 24 25 34 48 56 44 20 25 41 57 63 99 99
61 70 50 72 63 67 72 59 50 85 70 90 86 96 92 86 62 62 67 54 48 72 78 67 54 40 44 55 50 48 49 42 46 37 26 25 26 32 45 50 43 19 25 33 50 65 92 96 89
67 52 73 77 84 80 72 77 98 98 100 98 100 98 98 88 74 62 56 46 88 93 74 60 52 50 55 62 67 57 53 53 48 32 25 27 30 46 50 46 19 24 33 52 74 83 93 100 99
90 90 92 68 70 75 88 98 98 98 98 98 98 98 91 77 66 52 49 55 72 81 78 65 61 56 56 64 63 63 63 58 36 30 34 39 45 52 54 20 24 42 66 79 88 91 96 100 99
96 93 79 72 60 87 94 99 96 98 97 97 94 48 44 60 60 59 75 99 99 92 89 80 80 86 82 76 80 75 68 39 44 44 53 52 56 59 23 26 38 67 78 81 90 100 100 100 97

GFSSGP_700_rhum_108.txt.gz
RH
24 19 13 7 6 6 4 4 3 3 4 14 16 15 18 23 23 20 21 16 19 26 27 26 30 33 32 22 19 17 12 10 12 12 10 9 16 21 22 26 47 49 47 45 44 48 59 68 76
22 28 23 12 9 7 6 6 5 5 5 6 14 14 16 18 18 16 15 20 22 29 35 35 34 33 30 25 21 17 12 11 11 11 9 7 9 17 20 25 44 51 52 51 45 49 57 64 69
16 29 30 19 12 12 12 11 9 7 9 8 9 15 17 18 20 16 18 23 28 26 38 38 35 33 26 24 20 15 13 12 11 12 10 8 8 13 17 27 47 54 56 54 48 48 48 55 63
17 26 31 23 18 18 16 15 13 11 10 12 15 15 19 17 19 21 19 26 30 30 35 41 35 26 26 21 17 16 14 14 13 13 12 11 10 11 14 29 49 59 60 59 60 59 48 47 55
17 25 29 26 23 20 18 17 18 15 14 16 17 16 17 16 17 17 21 21 27 28 35 38 26 26 28 22 19 18 16 14 14 15 14 13 14 12 13 28 50 60 62 63 63 68 63 53 47
23 24 31 27 25 22 20 19 21 20 20 19 20 19 18 17 16 24 19 16 22 37 36 27 27 32 30 26 23 19 18 16 16 16 15 13 15 16 15 24 52 67 70 69 69 70 68 65 60
21 27 29 29 28 24 20 21 22 22 22 22 23 21 20 17 16 18 25 20 23 33 37 27 35 32 29 25 22 19 19 18 17 16 16 16 13 17 17 20 40 60 72 77 70 73 70 65 65
18 25 30 28 28 25 21 21 22 22 22 25 26 26 22 18 17 20 26 44 38 39 31 33 36 31 30 26 23 21 20 19 18 17 17 16 15 14 16 21 24 37 52 70 73 79 69 63 64
13 22 29 30 23 23 22 22 23 23 25 26 25 26 28 22 18 28 38 53 48 36 39 38 31 33 27 23 22 21 20 20 20 18 18 17 17 14 14 20 24 28 40 55 74 79 77 68 73
13 15 20 20 21 21 23 22 21 24 24 25 21 26 29 30 18 28 48 57 52 42 44 40 35 33 26 22 23 22 22 21 20 20 18 19 18 16 14 15 23 30 34 43 58 65 71 69 74
14 16 18 18 18 20 22 20 23 25 22 21 22 22 27 31 34 32 63 66 55 49 42 39 37 38 28 24 24 24 24 23 22 22 20 20 19 18 16 14 13 21 34 45 55 62 66 70 77
12 11 12 13 13 14 15 16 16 18 20 19 20 20 25 29 42 50 78 66 72 60 48 44 41 36 32 28 28 28 28 28 25 23 23 22 21 20 18 18 16 15 20 25 35 52 61 72 72
16 16 15 16 16 16 16 16 18 18 18 19 21 22 24 29 31 51 67 76 57 73 64 66 61 53 49 53 49 37 31 34 33 29 26 24 23 22 21 20 20 20 19 20 20 22 27 32 42
2 4 5 6 10 13 11 14 21 14 14 14 17 20 25 30 33 33 36 40 69 71 78 84 78 63 51 36 48 41 36 36 37 39 33 30 27 25 24 22 23 26 28 29 32 31 30 35 35
5 6 10 12 14 15 10 8 10 13 10 9 11 12 16 24 30 32 32 33 33 33 40 66 74 95 50 38 41 41 26 23 22 30 41 37 33 29 26 26 25 29 36 39 43 45 46 48 44
6 6 6 13 13 10 9 7 5 5 5 7 10 10 9 13 20 25 28 29 29 29 30 31 40 50 53 40 36 37 30 26 30 28 44 45 42 36 30 29 30 32 42 46 49 49 51 54 52
9 11 10 12 12 12 16 4 6 5 6 5 4 4 6 8 8 14 20 23 25 25 26 24 26 30 36 32 42 38 38 37 35 32 40 51 46 44 39 32 34 37 41 42 45 47 50 53 54
18 13 15 16 16 9 11 4 2 8 10 5 4 5 5 4 3 5 8 14 20 25 24 22 21 24 30 28 30 47 48 42 37 34 34 61 50 48 48 44 37 38 39 37 40 47 51 56 56
28 30 31 26 33 34 32 22 4 9 16 11 8 7 7 6 2 5 8 12 24 26 24 25 27 26 24 30 28 30 35 37 36 36 31 44 69 52 48 51 51 44 41 39 46 52 55 56 61
45 44 37 32 39 36 31 20 13 10 23 25 11 8 9 7 10 12 26 25 25 23 24 24 24 28 29 24 27 28 29 32 37 35 33 33 65 76 66 54 55 57 55 48 46 46 53 61 63
35 41 40 34 31 28 23 20 15 18 10 10 10 19 23 21 24 26 25 28 27 27 23 23 23 26 26 29 26 25 30 37 34 35 38 34 35 78 72 69 68 63 64 59 53 52 49 56 60
27 26 25 25 24 27 28 42 10 22 10 12 20 47 40 38 32 36 32 29 28 25 25 22 23 23 26 24 30 27 24 30 32 38 39 37 36 62 45 41 50 52 64 64 54 43 45 54 51
31 26 26 28 34 48 26 38 22 22 15 45 48 70 59 50 45 39 37 30 23 23 23 23 22 22 25 24 25 30 30 30 35 36 36 38 36 54 48 41 43 40 44 56 47 42 42 46 50
35 35 38 40 45 58 37 33 33 43 81 75 89 91 72 62 57 50 48 40 30 20 16 21 22 22 23 26 26 30 31 32 33 34 34 37 35 37 52 44 43 40 40 44 44 42 42 44 52
55 66 69 74 86 58 34 41 47 83 88 96 96 100 100 97 96 88 87 53 56 42 21 20 20 21 24 27 28 28 31 32 33 35 36 34 33 39 41 50 47 43 36 41 42 41 39 43 51
61 53 62 71 71 61 46 54 89 97 99 100 99 97 100 100 100 98 99 99 93 63 47 29 28 26 24 26 27 28 27 33 35 35 36 38 42 43 64 67 56 44 34 37 40 39 37 44 52
59 59 44 57 56 65 60 55 70 84 87 88 96 96 98 99 99 97 96 100 91 72 69 57 60 49 33 27 25 26 28 33 33 37 39 38 52 84 88 70 46 36 36 32 34 36 40 53 60
60 65 79 92 97 96 66 77 96 77 77 94 96 96 97 98 100 98 90 82 100 77 71 67 63 64 56 46 43 36 35 36 46 45 38 42 55 76 74 52 41 36 37 34 36 42 52 58 42
56 84 83 82 80 93 92 96 100 94 91 94 96 96 96 97 98 99 99 98 100 100 94 79 67 61 63 49 47 48 43 43 46 38 39 51 64 66 55 53 46 39 44 44 54 63 61 34 24
88 70 83 94 95 82 68 97 89 91 97 95 92 95 99 97 98 98 99 100 100 99 99 75 71 67 71 61 61 60 51 43 41 46 56 65 68 60 60 55 42 45 48 54 64 61 31 24 32

GFSSGP_700_rhum_111.txt.gz
RH
18 23 22 17 9 6 4 5 4 3 3 10 12 9 13 16 22 27 18 17 17 20 25 23 17 28 33 24 21 17 13 11 12 11 11 12 17 20 17 17 19 38 41 41 42 43 48 59 73
15 19 26 24 14 9 8 9 8 6 6 6 6 8 12 17 21 21 16 21 23 25 26 23 22 32 31 24 22 16 13 12 12 12 11 10 12 16 15 15 17 35 43 49 47 44 49 56 69
19 18 28 28 23 16 15 14 12 11 8 8 9 9 12 16 19 20 20 24 24 25 27 20 30 32 28 23 19 15 13 13 13 13 12 11 10 11 14 13 16 29 42 51 50 47 47 50 63
20 22 29 26 22 20 18 17 14 12 10 10 13 15 12 19 17 18 22 27 27 28 27 26 31 31 23 24 19 16 14 14 14 14 14 12 12 11 12 12 15 25 44 55 55 53 50 44 52
21 21 29 29 26 23 21 19 19 18 17 15 17 16 14 18 17 16 18 35 33 32 30 31 29 25 26 27 21 19 17 15 15 15 15 14 13 14 13 13 17 29 42 57 56 60 63 55 47
21 22 31 28 26 23 21 22 22 21 21 21 22 20 19 16 16 16 18 33 36 34 29 30 30 23 30 29 24 21 17 17 16 16 16 15 14 15 16 16 25 36 42 50 57 62 67 66 59
22 26 29 29 30 26 21 23 23 22 21 22 27 27 21 21 18 16 18 30 40 38 36 33 27 26 32 28 24 21 19 18 18 16 16 16 15 14 17 19 25 36 44 54 59 61 65 66 63
20 23 30 30 29 25 22 22 22 22 20 21 22 28 25 23 19 17 16 19 36 49 42 30 22 27 33 29 25 22 19 19 18 18 17 16 16 15 15 21 22 28 34 52 60 65 74 71 64
16 19 26 23 23 22 21 21 21 22 23 22 21 22 25 26 23 19 20 27 34 54 48 29 21 33 33 31 26 23 20 20 20 19 18 17 18 16 14 16 22 24 28 38 48 67 77 76 69
18 14 17 18 19 20 20 20 20 22 23 23 21 21 24 27 28 21 22 42 49 58 58 25 21 27 31 31 25 22 21 20 20 20 20 18 18 17 15 14 17 26 30 37 41 52 66 69 71
18 19 20 17 17 17 18 19 19 20 20 20 20 19 23 29 29 27 22 49 64 59 64 29 23 26 25 25 24 24 23 23 22 22 22 20 19 19 17 15 14 17 27 37 41 49 57 65 70
20 18 17 15 14 13 14 15 15 16 16 17 18 19 20 22 29 33 31 53 73 76 64 30 27 27 28 26 26 28 29 28 27 24 24 24 22 21 19 18 16 15 19 32 37 42 56 49 55
2 6 10 12 13 15 14 13 14 11 12 14 17 18 19 20 23 32 40 58 69 82 76 41 36 33 30 30 29 30 34 34 34 33 30 27 27 23 21 20 19 18 18 19 22 24 27 26 31
2 2 2 2 2 4 7 7 8 6 5 6 10 12 14 18 21 24 34 45 70 69 75 77 68 40 36 35 34 35 38 44 41 39 40 38 32 30 24 22 21 21 23 23 23 25 28 30 32
4 6 6 6 8 8 8 10 8 10 8 10 11 9 8 10 13 20 25 35 51 69 63 60 74 77 69 63 52 59 71 72 51 41 44 44 42 37 32 25 23 24 26 29 33 37 41 44 45
7 8 8 7 10 12 8 10 11 11 8 6 4 5 4 6 7 9 15 24 32 42 57 64 62 61 70 61 83 83 57 52 57 44 24 33 50 45 40 32 26 25 29 30 34 41 46 49 48
11 10 13 13 11 9 9 11 7 6 6 5 4 4 4 3 3 3 6 11 18 28 35 43 43 48 41 63 79 92 66 40 44 37 28 25 27 48 45 39 32 29 30 34 35 39 45 50 50
16 22 23 24 13 13 10 4 9 10 8 7 8 5 3 3 3 3 3 3 5 10 19 27 31 32 32 32 36 59 62 48 44 37 30 31 30 32 52 45 39 35 33 34 36 37 44 48 53
21 28 31 26 27 24 17 7 6 12 11 8 6 5 4 3 3 2 2 2 3 3 4 9 20 24 24 27 30 29 32 38 39 35 35 34 34 36 60 50 47 43 39 37 35 39 44 46 54
38 40 40 32 30 29 22 8 5 12 15 10 7 5 3 2 3 3 3 2 2 4 12 14 11 17 23 24 23 24 29 28 32 37 38 37 37 33 49 51 49 50 47 47 45 42 43 48 53
40 37 31 25 21 20 19 14 12 16 13 15 12 7 7 17 26 26 11 8 7 6 14 28 25 21 25 25 27 27 25 29 29 31 32 37 38 34 43 55 77 56 54 53 54 54 55 55 56
31 25 22 25 30 25 30 27 15 20 24 25 11 16 24 24 33 45 40 23 31 28 26 30 30 27 24 24 24 26 28 25 26 29 29 31 36 35 34 37 78 89 74 58 58 59 60 62 59
27 27 30 34 43 48 38 45 15 23 34 21 33 41 51 53 54 44 52 46 42 36 31 24 28 27 24 23 23 26 24 26 25 28 29 30 34 36 37 38 69 82 63 68 67 63 63 62 58
27 29 34 34 46 42 33 35 28 47 47 65 80 84 64 73 55 69 61 59 53 49 45 40 26 24 25 23 22 23 24 25 29 27 26 30 35 38 41 43 50 78 50 52 40 41 48 66 52
42 60 51 55 63 40 44 48 48 53 90 96 77 81 84 73 65 90 82 96 98 73 58 51 30 16 21 23 22 22 25 24 29 30 29 32 36 37 42 44 48 67 48 48 46 40 47 50 48
66 58 46 54 48 42 43 34 75 91 86 85 91 96 91 90 79 77 97 98 95 99 99 98 48 29 15 21 22 23 27 26 30 32 33 33 34 34 37 44 52 60 62 55 46 40 35 46 47
61 53 42 56 52 52 43 55 58 79 95 86 87 91 84 87 88 95 98 98 99 92 100 95 71 39 25 19 22 25 28 27 26 31 32 33 34 36 39 45 63 64 65 64 50 40 33 41 45
49 71 83 79 86 76 52 54 83 86 70 79 91 86 81 92 97 97 99 99 100 93 100 95 77 57 40 34 33 25 25 33 34 32 34 36 36 38 39 45 65 75 80 66 50 37 36 38 39
57 77 76 75 72 76 73 86 100 84 83 90 94 94 87 94 96 96 97 98 100 98 98 97 86 77 68 57 54 46 42 44 44 42 39 37 35 36 40 48 62 93 75 55 47 38 40 36 36
82 82 96 96 77 93 94 88 93 95 94 95 99 98 97 96 96 97 97 98 99 99 99 99 94 86 74 77 69 60 55 52 48 49 48 49 43 42 48 62 82 79 64 57 44 40 42 40 50

GFSSGP_700_rhum_114.txt.gz
RH
21 16 20 23 21 14 10 8 8 8 7 7 13 14 12 15 19 23 23 20 17 19 23 22 18 14 29 22 22 19 13 14 18 21 24 27 26 24 22 17 16 25 32 38 40 42 49 58 69
23 20 20 27 19 13 11 10 11 10 8 5 6 6 13 20 20 19 17 19 19 16 23 24 17 16 28 22 22 16 13 14 14 17 22 24 24 21 19 18 19 30 35 40 44 44 54 56 70
26 21 26 26 20 16 14 13 13 14 9 7 11 10 10 25 17 17 19 24 22 24 26 26 17 19 27 22 20 16 13 14 14 14 14 16 18 18 18 19 21 29 37 43 48 46 47 54 57
26 23 23 26 21 20 17 16 17 14 13 11 10 19 16 12 18 17 17 21 25 26 23 27 17 22 25 23 21 16 14 14 14 14 14 14 14 16 17 17 20 31 38 43 49 48 49 47 50
26 24 28 27 24 23 21 21 21 20 18 17 15 21 23 20 18 17 17 27 28 26 26 21 18 23 23 26 24 20 16 15 15 15 15 15 15 16 16 17 22 33 44 47 50 50 58 54 48
24 25 28 24 23 26 22 23 22 22 24 23 24 26 27 21 18 17 16 26 31 31 28 22 23 22 22 29 27 22 18 16 16 16 16 16 16 16 17 17 22 39 46 49 50 55 58 65 58
22 34 28 26 26 29 24 22 23 25 28 28 38 22 28 30 20 18 16 17 35 35 30 26 26 22 21 30 28 23 20 17 17 17 16 16 16 15 16 19 21 40 52 53 57 60 58 65 64
24 32 28 30 28 29 27 24 26 26 30 24 24 31 35 21 22 21 18 18 30 40 33 26 24 26 22 31 29 24 21 18 18 18 18 17 16 16 15 17 20 30 44 57 67 70 64 72 68
23 28 27 27 29 27 27 21 26 23 22 32 23 23 23 19 20 22 19 18 24 35 45 33 27 23 21 30 30 25 22 19 19 19 18 18 17 17 15 14 18 25 33 46 55 66 77 81 74
22 27 25 28 29 27 29 25 26 32 35 37 22 24 25 24 21 21 23 21 22 35 47 46 31 23 21 29 31 28 23 21 20 20 20 19 18 18 16 15 16 22 30 32 45 56 77 84 79
26 28 25 30 20 21 31 28 26 26 30 28 25 20 20 22 24 21 23 25 27 42 47 55 48 26 25 25 32 32 25 22 21 21 21 21 20 19 18 29 22 24 20 27 33 43 55 73 77
15 18 17 22 18 18 17 25 17 22 16 15 18 16 17 18 20 22 23 26 26 37 57 70 73 36 33 24 28 27 24 22 23 23 24 23 23 21 20 18 17 16 20 21 26 38 52 70 72
2 3 2 3 2 5 7 8 10 8 18 7 10 12 14 16 18 19 22 29 28 42 51 69 78 51 44 30 28 27 26 26 27 28 28 28 26 25 24 21 19 17 21 23 18 20 25 43 58
13 3 2 2 2 3 5 4 16 8 4 5 4 5 8 12 14 17 20 29 34 38 62 54 72 58 45 40 33 33 30 28 30 34 35 35 34 30 28 26 22 20 18 19 23 22 23 25 30
3 4 9 5 14 11 4 9 19 16 7 8 8 10 10 10 11 11 14 20 32 38 59 64 63 65 51 46 42 36 36 32 32 36 38 39 39 39 36 31 28 23 21 22 23 26 28 30 34
9 25 18 15 8 23 13 14 15 17 10 11 8 6 4 4 4 4 6 10 18 31 38 54 63 79 65 68 58 47 39 38 38 41 64 58 47 44 43 41 36 28 23 24 26 28 30 34 35
30 14 14 18 22 11 20 18 24 26 24 6 5 4 4 3 3 4 3 3 4 11 27 38 41 57 67 63 71 73 75 66 45 65 80 72 62 42 39 45 44 36 28 25 28 31 32 34 36
14 19 19 21 22 29 26 24 22 29 26 17 9 5 6 10 5 4 4 3 3 3 4 15 36 39 46 55 60 64 73 78 91 78 50 52 40 25 24 33 45 43 34 30 28 30 34 39 42
32 30 26 22 28 32 28 24 21 17 17 18 16 21 19 8 4 3 3 2 2 2 2 2 5 24 30 35 45 52 60 67 72 83 52 42 34 29 27 28 33 48 42 37 32 33 35 40 42
33 29 25 27 35 32 20 15 15 15 17 21 23 21 6 5 4 3 3 2 2 2 2 2 2 2 9 21 27 34 36 42 56 59 76 81 40 35 32 31 29 28 48 44 42 37 38 40 43
32 33 30 28 24 22 18 15 11 18 22 30 20 12 8 5 4 5 5 6 7 5 2 2 2 2 5 6 10 20 25 31 33 34 39 48 36 33 34 33 30 34 39 50 46 43 41 44 46
30 29 29 27 26 18 20 20 19 17 27 60 22 15 20 26 34 33 33 32 28 28 16 10 6 7 13 26 19 21 27 24 24 29 29 30 34 30 32 36 34 30 39 74 54 51 48 47 49
30 35 35 35 33 32 26 26 23 17 25 52 28 43 50 50 42 31 32 31 39 34 26 14 14 19 27 29 27 24 26 26 26 25 24 28 30 29 28 35 38 34 39 48 80 66 56 56 58
37 38 35 37 37 32 24 20 20 31 56 42 30 53 44 58 58 54 52 44 46 43 40 36 20 25 32 31 31 28 25 24 25 26 27 24 28 29 30 30 37 37 35 34 65 91 81 73 72
45 42 29 31 43 31 29 33 21 65 52 53 75 70 75 84 74 65 58 55 50 50 51 58 48 43 44 36 26 29 27 23 23 25 25 26 22 26 30 31 35 36 36 39 79 84 59 55 52
51 45 29 24 20 18 37 32 34 56 51 88 83 78 84 82 73 72 76 70 58 56 64 76 90 53 48 43 27 28 27 23 22 24 24 26 24 25 27 30 36 36 41 47 66 68 58 54 52
44 52 41 41 39 41 32 26 44 57 80 75 80 77 82 74 74 78 83 77 75 62 64 67 78 98 98 55 29 27 25 23 22 24 26 26 28 30 30 29 36 42 45 49 60 79 58 59 74
49 56 65 52 64 53 30 33 65 92 82 71 74 79 75 75 79 80 90 77 84 78 80 62 77 99 87 55 32 21 20 22 22 26 26 24 31 33 32 34 38 43 50 52 57 66 64 63 61
63 61 64 64 61 58 57 78 88 71 77 78 86 83 85 81 83 80 91 82 87 84 83 83 99 97 77 58 36 22 21 23 22 27 26 29 32 44 35 35 35 40 48 49 60 64 68 68 59
60 58 62 65 66 62 72 72 85 89 88 92 95 89 90 89 92 91 92 97 97 98 97 97 100 99 94 72 61 56 49 43 48 46 35 38 44 44 41 38 40 42 45 49 74 72 87 66 58

GFSSGP_700_rhum_120.txt.gz
RH
24 24 22 20 28 23 15 11 9 8 8 9 12 10 11 12 14 29 48 36 26 18 16 18 18 15 12 25 23 24 17 13 11 10 11 14 15 16 15 14 17 30 40 43 40 42 48 58 66
25 26 23 29 30 19 13 11 8 10 11 12 10 8 10 15 17 29 31 29 27 18 15 17 17 17 13 22 22 22 18 13 12 11 12 12 13 14 14 15 17 32 38 41 43 45 48 57 72
26 26 26 34 27 22 14 13 12 12 12 11 11 13 15 22 28 21 13 15 17 21 14 14 18 18 14 20 20 20 15 14 14 12 13 14 14 13 13 14 20 31 40 44 49 47 53 55 65
27 27 26 28 26 20 17 15 15 15 15 16 15 16 17 19 19 19 15 14 18 24 19 18 23 20 15 19 20 19 16 15 14 13 13 14 14 14 14 14 15 25 36 46 52 49 51 54 55
26 32 32 28 24 21 19 17 16 18 19 20 20 20 19 25 25 23 17 10 17 23 25 28 27 23 16 19 20 20 18 17 16 14 14 14 14 15 15 15 17 24 36 45 51 53 55 55 52
38 35 30 26 22 19 18 18 19 21 22 22 21 21 22 31 34 31 22 12 15 20 25 30 30 24 17 20 21 21 20 19 16 15 15 15 15 15 16 16 19 28 39 48 53 56 59 63 58
30 32 29 25 23 22 21 21 22 23 25 23 26 27 27 29 34 36 28 17 12 19 24 25 29 26 18 21 22 22 21 21 17 16 16 16 15 15 15 16 18 26 38 48 54 57 61 64 66
33 32 29 26 24 22 21 22 24 25 25 27 27 29 29 35 40 39 34 25 18 14 21 27 33 29 21 19 23 24 24 22 18 17 17 17 16 15 15 15 17 26 34 41 54 60 61 61 64
35 36 28 24 22 20 21 22 23 24 27 28 33 32 32 34 37 38 35 31 20 17 15 24 30 30 25 21 25 24 27 24 21 18 18 18 17 16 16 15 17 21 33 40 46 62 66 65 66
32 32 28 24 21 22 22 26 24 24 26 27 29 32 33 35 36 32 26 22 23 20 17 17 27 35 26 23 28 27 27 27 24 20 18 19 18 17 17 16 15 15 27 27 29 40 48 57 70
26 27 27 26 24 22 23 26 27 25 28 30 29 28 31 32 32 29 23 21 26 31 29 18 19 33 41 26 25 33 25 30 27 24 20 19 19 18 18 17 16 16 20 27 31 28 32 41 61
22 23 24 24 19 23 23 26 26 26 24 24 23 25 26 26 26 23 20 25 34 26 26 30 21 24 40 42 44 32 36 26 31 28 23 21 20 20 20 18 19 26 22 22 29 28 30 39 45
19 18 18 19 20 17 20 21 20 9 4 7 18 20 21 19 24 26 30 31 23 30 26 34 31 32 40 52 62 53 42 36 27 30 29 23 21 21 21 21 20 19 21 21 29 29 27 36 43
20 21 21 20 22 17 19 19 18 16 10 9 18 18 22 25 23 24 24 20 34 40 39 31 32 30 46 58 76 66 55 48 32 28 26 24 22 23 23 23 23 22 20 18 22 24 24 27 31
25 23 22 20 17 16 16 17 21 15 15 20 19 24 23 23 22 21 21 24 26 30 35 40 42 38 40 59 69 75 65 73 57 36 29 26 24 24 26 27 26 26 25 22 19 21 28 24 22
25 24 25 23 21 18 16 18 21 17 20 22 24 23 22 22 20 19 21 25 28 28 29 34 42 33 31 39 72 82 77 74 61 48 36 29 27 26 29 30 31 32 32 28 26 21 23 28 28
32 28 23 21 20 18 18 20 20 17 16 20 24 22 20 23 21 21 23 26 25 11 6 7 17 21 21 33 44 79 90 85 76 62 39 30 30 30 30 33 35 36 37 38 35 28 24 22 25
25 24 23 22 17 17 17 17 18 18 20 20 18 18 20 21 22 24 25 22 20 14 10 8 5 4 9 19 32 40 70 80 81 72 48 32 29 32 33 34 36 37 38 39 39 37 30 24 23
27 25 24 25 25 21 20 18 18 19 22 19 16 14 15 16 26 29 23 22 21 21 18 9 5 4 3 3 9 26 34 43 70 64 66 61 34 32 34 34 34 40 44 47 44 38 40 32 25
26 26 29 29 23 21 20 20 20 22 20 18 17 17 24 33 39 28 20 20 21 17 8 6 4 4 3 3 3 4 17 31 36 52 61 58 62 40 35 35 35 35 60 68 58 33 36 43 35
28 28 29 25 24 22 22 24 22 20 22 20 18 24 24 27 31 23 20 20 12 11 10 10 9 4 3 3 3 3 3 6 24 33 40 58 54 65 62 40 41 39 60 62 52 28 24 40 45
27 28 26 24 26 26 24 23 24 23 22 23 44 36 26 23 21 18 20 15 12 23 27 27 22 19 17 7 4 3 2 3 4 13 34 66 41 50 60 64 77 57 56 70 41 28 26 40 40
25 25 29 29 30 30 28 27 29 29 28 43 59 62 73 49 37 30 21 19 31 36 45 43 36 30 30 26 16 7 5 3 3 5 12 27 91 42 51 63 66 71 80 79 53 35 33 30 33
29 31 31 30 31 34 30 29 27 38 68 68 75 56 58 42 27 27 37 46 48 48 43 40 41 39 37 33 30 26 18 10 6 4 7 17 22 21 35 49 55 71 66 74 97 67 52 33 33
32 36 39 39 39 39 30 27 66 74 80 73 53 39 29 29 43 48 50 49 47 48 49 48 48 46 51 49 36 30 32 26 18 13 8 15 31 30 37 39 42 49 53 56 53 67 73 42 35
36 32 34 44 46 38 33 29 56 82 100 56 39 48 44 40 42 51 56 54 52 52 54 59 63 58 55 52 39 33 40 34 28 22 14 9 17 50 66 44 59 47 48 56 50 50 46 46 45
39 33 30 32 34 40 35 31 60 94 88 60 60 50 44 53 58 60 61 65 63 68 72 68 68 72 65 57 48 40 41 38 36 34 29 20 13 15 44 70 58 69 55 54 44 30 29 39 49
40 41 39 38 49 51 31 38 83 78 79 66 57 59 60 68 74 70 73 76 79 84 83 82 82 79 78 67 58 46 44 47 49 51 40 33 26 16 26 43 40 68 87 41 38 32 29 29 34
39 39 44 41 40 52 60 67 86 91 75 71 69 77 71 76 75 76 82 86 91 98 96 92 95 99 96 87 71 61 58 58 69 51 35 38 37 33 23 34 38 39 83 67 45 28 26 26 28
35 34 34 53 56 39 43 74 86 82 78 79 80 78 78 80 84 91 93 95 96 96 98 96 96 99 99 98 97 94 85 72 51 36 37 38 46 41 33 44 32 41 78 89 50 26 25 28 29

GFSSGP_700_rhum_126.txt.gz
RH
22 22 21 18 16 17 16 17 16 12 11 10 9 8 7 7 7 13 19 33 38 43 41 25 18 23 17 13 23 22 26 17 14 11 10 11 12 12 11 11 13 20 36 45 39 42 48 54 58
22 22 21 19 18 20 19 18 18 16 11 11 10 9 8 8 7 10 15 22 30 32 31 30 20 18 20 13 18 22 25 18 15 12 11 11 12 12 11 11 13 20 38 40 39 44 54 62 68
24 24 22 23 18 17 19 20 23 15 15 14 13 11 11 13 14 18 20 21 22 20 14 20 22 22 20 16 14 20 22 20 15 14 13 12 12 12 12 12 14 21 31 35 41 44 52 62 74
24 26 24 22 18 22 24 25 24 16 18 20 18 14 17 17 16 16 16 17 17 16 14 16 21 25 23 17 14 20 20 20 15 16 14 12 12 12 11 11 14 20 26 34 42 45 56 56 63
26 26 25 23 20 24 28 25 23 19 22 23 22 19 17 17 20 21 23 23 24 21 14 13 22 29 31 19 16 19 20 20 16 17 15 14 12 12 11 11 11 14 22 33 45 48 52 53 58
27 26 26 26 24 26 27 24 24 23 22 22 22 22 23 25 26 26 29 28 24 21 15 11 16 27 32 26 19 18 21 20 17 18 16 15 14 13 12 11 11 11 16 29 42 47 48 52 55
29 28 30 31 25 25 26 24 24 24 24 24 25 26 28 37 40 38 32 32 28 26 24 15 12 18 35 32 24 21 23 20 19 18 18 17 16 14 13 12 12 12 14 24 40 49 48 54 59
28 29 31 31 28 27 27 24 24 25 26 31 27 28 33 35 33 31 30 29 31 29 24 23 14 15 22 41 29 25 24 24 20 20 18 18 18 16 14 12 12 12 14 22 34 43 51 53 61
31 31 30 30 29 28 29 25 23 24 25 27 27 28 29 31 30 31 33 31 31 31 30 26 23 16 17 28 42 30 24 27 24 21 20 18 18 18 17 13 13 12 13 17 28 33 46 54 56
32 32 32 31 32 32 29 26 23 23 23 26 27 28 29 31 31 31 30 29 28 29 29 23 22 22 20 18 34 41 30 26 29 24 22 19 19 19 18 15 15 14 13 16 21 25 33 49 58
30 30 28 27 28 22 22 25 25 23 23 22 23 25 28 29 30 31 31 30 26 24 23 25 25 22 20 22 23 38 41 32 32 31 25 22 19 19 20 17 16 16 15 14 18 20 23 41 50
26 25 23 22 21 22 21 25 24 24 22 20 19 19 19 22 22 19 22 21 14 10 13 21 35 34 31 26 46 37 47 45 35 38 36 28 22 19 20 20 18 17 18 17 18 21 25 25 33
29 28 25 23 22 20 19 21 23 23 22 17 17 16 14 8 7 11 14 14 10 8 20 22 24 28 28 36 43 45 50 60 57 57 57 49 32 23 19 20 20 19 18 21 21 20 22 24 23
28 29 28 27 27 24 24 23 24 21 18 16 16 17 15 11 14 15 16 16 15 15 15 20 21 13 21 27 32 39 40 61 78 75 69 74 67 43 24 20 20 20 20 20 22 21 22 26 23
29 28 26 21 24 23 23 22 20 19 18 17 17 16 18 17 16 19 18 22 22 19 17 22 25 27 12 16 24 31 41 42 50 78 82 55 89 74 47 27 22 21 21 20 20 20 20 23 24
28 26 25 23 26 24 24 23 20 19 18 18 18 18 21 19 19 21 23 23 22 21 19 18 16 18 20 13 10 16 24 37 52 65 79 82 89 100 84 53 26 24 23 22 21 21 21 19 20
26 26 26 27 27 27 24 22 20 19 20 19 18 20 19 20 20 20 20 21 22 22 20 20 19 20 20 20 14 11 12 20 30 54 68 82 89 94 94 76 45 35 34 25 24 24 24 23 21
30 30 30 31 30 28 26 27 27 26 23 21 20 22 22 22 22 22 22 21 20 19 20 21 22 22 22 22 21 18 17 18 18 28 41 73 86 95 96 99 83 63 42 36 38 29 27 28 27
32 32 34 36 34 30 26 27 28 26 24 22 22 22 22 22 22 22 21 22 22 20 19 21 20 21 20 22 24 20 17 16 17 17 23 36 63 72 80 97 100 92 65 52 60 45 33 34 35
34 35 35 35 31 31 29 29 28 25 24 24 24 24 25 25 25 24 23 24 26 26 27 24 23 24 23 23 26 25 18 17 11 9 12 17 33 56 74 89 99 98 79 84 76 61 57 59 66
38 34 35 31 30 29 28 28 27 28 26 26 27 28 28 30 28 29 27 28 27 36 42 40 34 29 31 27 22 19 21 19 14 8 6 6 9 30 54 90 100 99 100 93 91 86 69 75 74
32 31 30 29 29 30 31 33 27 29 29 31 31 31 33 37 37 38 38 44 46 47 44 38 33 31 28 28 28 27 26 24 22 10 6 6 4 6 28 52 80 98 91 92 96 70 65 72 77
30 29 30 30 30 30 32 31 26 29 34 41 43 45 50 52 59 62 59 52 47 41 37 35 35 36 32 28 21 16 13 10 9 5 4 4 5 4 6 25 42 69 86 90 78 91 68 77 70
30 30 30 31 31 39 32 35 34 36 44 47 57 67 72 70 62 54 48 42 38 34 33 30 27 28 32 33 33 33 31 23 22 19 12 6 5 5 4 9 21 36 64 73 83 78 75 84 93
29 32 39 51 58 54 38 41 52 46 53 63 78 77 66 52 48 45 42 39 36 33 32 31 34 38 41 43 42 42 41 32 25 22 20 18 10 7 6 6 10 18 22 48 64 85 94 93 94
32 32 38 63 68 56 43 42 50 43 61 76 81 69 68 65 59 55 50 46 42 38 36 40 47 50 52 58 75 75 67 56 46 36 29 25 21 16 14 10 7 10 39 39 47 79 98 96 99
38 39 38 38 40 51 48 56 57 52 67 75 81 81 79 63 58 52 50 50 52 52 53 61 72 77 82 83 81 78 71 66 63 60 55 48 36 26 25 20 12 11 12 67 85 63 74 96 93
37 38 39 40 59 60 47 44 49 63 77 86 82 68 69 64 53 55 58 61 67 74 82 87 93 90 94 94 89 89 88 85 74 67 55 51 45 34 25 21 24 21 16 18 74 99 60 92 80
37 38 40 38 38 63 76 52 40 43 57 66 77 67 67 63 59 68 72 79 84 90 91 92 94 97 97 96 94 91 84 89 74 67 60 52 42 32 24 29 31 30 26 21 21 84 99 42 32
35 36 48 44 49 46 48 53 43 47 49 67 70 76 75 69 75 81 84 90 97 95 96 96 95 96 92 90 87 97 100 99 100 98 80 52 40 36 36 43 48 43 41 38 27 15 43 86 44

GFSSGP_700_rhum_132.txt.gz
RH
21 19 18 19 18 15 18 20 23 16 13 12 10 11 12 13 17 19 25 42 41 41 45 42 41 29 26 15 14 20 21 20 22 23 26 20 12 10 10 9 8 8 10 16 26 26 32 39 48
22 21 19 19 18 17 22 27 22 14 13 12 12 11 10 10 10 12 24 38 47 44 36 25 20 26 28 26 24 15 18 22 21 20 19 23 14 12 11 10 10 9 12 17 21 23 27 36 44
23 22 21 20 21 20 25 26 24 15 12 13 13 13 12 12 14 16 20 20 20 21 21 19 18 16 19 29 31 25 16 20 22 22 17 17 16 14 12 11 11 11 11 19 22 24 27 36 43
25 23 22 22 24 31 29 25 23 19 17 17 15 16 16 17 18 20 20 19 20 21 23 23 23 17 15 24 34 35 25 21 22 21 20 16 18 15 13 12 11 11 12 16 23 26 27 34 43
27 24 23 24 27 30 28 25 20 19 20 21 20 18 19 19 19 18 20 21 22 27 29 27 28 27 17 20 40 49 45 32 28 24 21 16 18 17 14 13 12 12 12 16 19 25 29 34 42
30 27 24 24 28 29 27 26 25 21 20 23 24 23 24 23 22 23 24 27 30 34 34 32 32 31 29 24 23 48 62 41 34 33 26 19 16 18 16 15 14 13 14 17 18 24 32 39 43
32 30 27 26 30 30 26 25 26 27 27 26 26 27 28 28 26 25 25 36 35 33 33 31 30 30 30 30 26 39 60 56 43 42 35 24 18 17 17 16 16 14 14 15 18 26 34 44 44
36 33 31 29 28 30 29 24 25 26 28 27 29 30 32 30 28 28 30 31 33 32 30 30 28 28 28 28 31 31 67 65 47 46 47 34 25 20 18 17 16 16 15 15 17 22 31 45 47
37 34 33 31 30 30 31 29 26 24 25 26 27 29 29 28 30 31 28 28 29 30 30 30 29 27 28 32 28 28 26 59 65 52 51 48 31 24 20 18 18 17 16 16 16 18 25 37 46
36 34 34 34 34 33 31 30 28 27 26 25 24 24 23 24 28 29 29 29 29 29 29 28 28 25 20 18 22 26 28 28 60 62 58 58 46 31 28 23 19 18 17 16 16 19 25 31 39
32 34 35 34 33 31 28 28 27 27 26 24 23 22 22 23 21 19 20 21 23 24 22 14 9 9 8 8 14 30 39 31 38 63 66 67 66 50 38 32 25 20 19 18 16 16 18 26 38
28 29 31 30 29 29 26 25 24 24 23 23 22 23 23 20 19 18 17 16 15 13 10 9 10 10 7 5 12 25 40 52 50 48 89 74 64 61 56 44 37 27 21 20 21 27 20 28 38
27 23 26 27 27 28 27 26 24 24 24 22 23 23 21 17 18 18 17 15 15 14 14 14 13 10 8 8 8 12 19 28 42 64 71 100 91 76 70 59 49 44 34 26 26 33 31 30 38
22 23 22 22 27 28 26 24 25 24 24 23 21 19 18 17 18 18 17 16 18 18 18 19 19 19 18 17 14 13 12 15 24 32 40 65 99 96 94 84 62 51 44 30 30 30 43 44 42
18 16 18 18 22 26 26 23 23 22 22 21 19 18 18 17 17 17 17 18 20 20 20 20 20 20 20 19 19 19 18 17 15 14 14 22 43 84 100 99 91 73 74 47 35 39 40 52 50
18 19 16 24 27 29 29 23 25 20 20 19 18 18 18 20 19 19 19 19 19 19 20 20 21 21 21 22 21 21 19 19 18 17 16 15 14 22 41 81 89 98 90 96 66 42 45 44 51
18 20 23 23 27 29 32 32 30 28 24 21 21 20 20 21 20 20 21 21 21 21 21 22 22 21 22 22 26 26 23 20 20 20 19 18 17 16 14 15 18 53 90 100 100 78 49 49 51
24 30 31 29 26 30 32 33 32 32 30 28 28 28 28 26 23 22 23 23 23 23 23 24 24 24 24 24 23 25 28 27 24 22 22 22 21 20 18 17 17 17 18 36 77 99 85 54 58
32 33 38 34 33 36 32 33 33 32 31 31 30 29 29 28 27 26 25 25 25 25 26 27 28 28 28 27 25 25 28 34 32 28 29 28 26 26 25 23 20 18 20 16 14 38 92 71 68
35 39 37 39 36 36 35 34 34 33 33 30 28 27 26 27 27 27 27 28 29 31 33 36 36 35 33 32 34 33 30 31 33 30 29 31 29 28 27 26 25 22 19 20 15 12 79 87 96
38 40 42 43 36 34 33 32 31 30 30 28 27 28 27 28 29 31 36 40 42 45 49 52 54 54 53 51 50 48 44 40 36 36 37 36 34 32 30 29 27 24 23 23 22 16 15 51 100
47 40 42 35 33 32 32 35 30 29 29 30 27 28 30 31 37 41 43 49 54 58 60 56 52 47 43 40 38 38 39 39 38 38 36 35 33 31 28 28 26 26 25 26 23 17 8 14 57
42 39 34 32 32 32 34 33 28 31 30 30 31 32 35 41 40 44 54 56 60 58 51 46 39 32 29 28 27 26 25 24 23 27 31 30 26 23 21 19 17 18 17 20 19 16 9 7 37
43 44 43 41 36 42 33 33 30 31 31 34 35 39 40 39 46 60 56 51 42 36 34 34 32 32 29 27 28 28 24 27 27 27 26 26 26 25 26 23 22 21 19 14 13 12 9 6 14
42 41 40 52 52 48 35 40 34 34 36 38 39 39 41 50 55 52 47 42 48 48 43 36 37 39 42 45 46 48 48 48 48 48 49 51 49 43 34 30 27 28 29 18 10 8 8 6 6
35 36 38 51 62 48 40 45 34 36 39 41 41 40 52 50 46 47 58 55 52 49 41 49 55 61 66 73 76 71 72 72 70 71 72 68 66 63 61 60 50 36 33 22 16 12 8 7 5
35 34 34 37 39 54 38 37 38 39 40 36 36 40 47 40 47 60 56 53 56 49 59 60 70 81 90 81 70 63 62 70 81 85 90 93 82 76 70 62 59 56 43 29 25 22 15 9 6
37 37 40 41 63 63 47 45 44 41 41 40 38 42 40 44 51 56 60 62 59 70 71 81 93 94 82 76 74 79 86 93 100 100 99 100 100 99 89 79 68 63 58 47 35 28 24 14 9
38 40 41 40 40 68 62 51 41 41 39 39 40 45 44 53 57 65 69 64 75 76 86 93 96 88 86 88 86 93 94 96 97 97 98 98 100 100 98 83 74 67 65 62 46 35 32 25 19
41 41 41 40 44 43 46 48 43 44 44 44 44 46 52 58 66 75 69 79 86 83 93 96 93 91 88 97 94 95 96 96 97 97 98 100 100 100 100 96 74 58 57 55 50 44 37 31 28

GFSSGP_700_rhum_135.txt.gz
RH
19 19 19 19 18 16 19 23 20 20 15 16 14 39 30 20 29 28 38 64 63 56 48 40 43 41 40 29 21 22 22 22 21 22 25 29 30 23 13 11 10 10 10 13 19 29 26 29 33
21 21 20 21 19 22 24 25 23 16 13 14 15 15 13 15 14 24 66 58 52 46 27 21 20 32 46 55 46 31 24 24 24 22 22 23 27 29 18 12 11 11 10 12 19 23 27 33 39
24 22 22 22 20 21 24 24 24 14 13 13 13 14 14 19 24 30 35 39 33 26 21 22 23 22 26 42 55 55 41 31 29 26 24 21 20 22 24 14 12 11 11 11 17 25 26 28 38
26 24 23 24 24 25 24 24 23 19 15 14 14 16 17 18 19 20 24 27 24 20 22 27 28 27 23 24 47 60 62 45 38 35 28 24 19 16 19 16 14 13 12 12 15 20 25 27 33
27 25 24 25 27 27 26 25 22 18 18 20 18 18 19 21 22 24 26 26 25 22 24 28 30 32 31 28 24 37 67 73 48 40 40 33 23 19 18 17 16 15 14 13 15 19 22 26 34
30 27 26 26 26 26 27 26 23 20 19 21 23 23 23 23 24 25 24 23 22 25 28 30 30 30 29 30 30 28 36 72 73 48 44 42 32 30 24 20 19 17 16 14 14 16 19 23 35
31 30 28 28 28 28 27 26 26 23 22 25 26 26 27 28 28 26 25 25 25 28 32 32 31 26 24 26 30 31 29 58 88 62 49 50 42 33 24 22 23 29 28 21 17 16 16 19 30
35 33 31 31 31 29 26 26 26 25 26 27 30 31 33 34 31 30 29 28 29 30 29 28 27 26 25 24 24 30 36 39 63 72 59 55 51 42 29 24 32 33 31 20 21 16 17 21 31
38 35 33 33 32 32 31 28 25 25 25 25 26 28 28 29 30 30 30 29 29 29 28 28 28 27 25 16 16 17 24 35 44 75 70 63 56 52 42 30 27 24 28 20 19 17 17 20 31
37 36 34 34 34 33 32 30 29 28 27 26 25 25 24 25 26 27 27 27 28 28 28 28 27 22 11 9 9 11 18 27 33 47 73 76 62 64 54 44 38 34 31 30 29 22 18 18 25
33 34 35 35 34 34 32 29 28 28 27 23 22 21 23 23 23 23 22 21 20 19 19 17 12 9 10 10 10 9 19 32 44 44 58 94 86 69 64 54 43 38 36 33 30 26 24 22 23
27 29 31 32 31 29 28 27 25 23 24 23 22 22 22 22 23 19 18 18 17 16 15 13 13 13 12 10 10 10 13 23 31 48 57 58 96 98 83 71 56 45 39 38 35 28 30 30 27
25 24 26 25 26 26 24 24 25 25 25 25 24 23 23 23 23 18 18 18 18 16 16 16 18 19 19 19 19 18 16 15 15 24 35 50 68 75 98 90 78 68 55 48 45 40 39 35 37
18 19 21 22 22 22 22 20 20 21 23 24 24 23 21 19 18 17 17 18 18 18 19 18 19 20 20 20 20 20 20 20 19 18 15 16 25 45 58 77 99 88 83 68 61 63 58 49 47
12 13 18 16 15 17 16 20 21 20 22 23 24 22 20 18 18 19 19 19 19 20 20 20 20 20 20 20 20 21 21 22 22 21 19 18 16 15 18 52 63 87 100 95 79 73 71 57 46
14 14 16 20 23 26 24 23 22 22 22 22 21 20 19 19 19 21 21 21 21 21 22 22 23 23 23 23 22 21 21 23 24 23 22 20 19 19 17 15 17 24 52 88 92 99 89 98 80
18 19 17 22 23 27 27 27 29 28 28 27 24 22 23 22 22 23 24 23 22 23 24 25 25 25 25 26 25 24 23 23 24 27 27 24 22 21 20 19 18 16 16 16 18 35 73 90 100
20 24 26 21 24 29 29 30 32 32 32 31 31 31 30 30 29 29 28 27 26 26 25 25 25 25 25 25 25 26 25 25 24 25 28 31 29 27 24 23 22 21 19 18 19 17 18 24 53
26 31 32 28 29 34 29 32 32 34 34 33 33 33 29 26 26 26 27 28 28 28 27 27 28 28 28 29 28 28 29 31 32 30 29 31 33 32 29 28 27 26 24 23 24 22 19 18 19
29 31 27 33 36 39 35 34 35 35 34 33 31 28 26 26 28 29 31 31 34 38 42 45 49 50 48 45 43 39 38 37 32 30 32 31 31 34 34 30 29 31 30 27 25 25 24 20 22
30 33 35 42 41 40 34 31 27 27 28 26 26 26 26 27 28 30 35 39 38 40 48 47 47 51 52 50 48 46 43 42 40 36 36 35 36 34 34 35 33 32 30 31 31 28 27 22 22
42 35 42 42 35 33 33 29 29 29 27 24 24 27 28 28 30 34 37 38 43 51 44 41 36 32 30 30 30 28 26 26 25 25 24 25 31 36 38 37 36 35 34 32 31 29 28 27 24
41 42 38 38 37 36 35 33 25 30 27 26 28 32 33 33 36 40 37 39 43 39 34 33 30 30 30 26 24 23 22 20 19 21 20 19 21 21 20 24 30 34 33 30 27 24 22 24 25
42 43 44 43 40 39 35 35 27 27 28 31 34 34 37 38 39 38 44 36 35 43 44 39 39 34 31 36 42 41 38 38 38 36 34 27 23 29 32 27 24 23 23 22 20 19 16 17 19
47 56 44 42 43 36 35 36 31 31 34 35 35 39 41 38 39 43 35 40 51 42 40 40 38 47 53 62 67 63 60 61 63 60 58 57 56 58 58 53 47 38 27 23 21 24 21 15 14
39 48 40 45 41 31 41 40 32 33 34 37 39 38 37 39 44 37 38 44 50 53 48 50 64 70 82 82 70 63 61 64 66 66 68 67 67 73 74 73 70 58 48 37 32 31 27 17 14
36 37 36 38 39 48 36 34 34 34 39 37 37 38 39 40 41 38 46 51 60 50 54 72 83 88 86 81 67 71 83 87 88 92 99 100 98 100 100 96 78 63 61 58 58 48 34 27 24
35 35 39 40 50 46 36 40 38 38 36 38 40 39 40 42 41 46 52 64 60 58 72 85 94 92 90 90 89 91 91 94 90 94 97 97 98 99 100 100 96 83 76 67 63 51 38 34 30
37 39 40 41 40 44 48 47 35 40 40 41 43 45 47 49 49 56 62 71 62 69 76 87 95 96 95 93 94 94 94 95 96 96 97 98 99 99 99 100 100 99 86 78 72 61 46 44 40
40 41 41 45 45 48 50 50 35 42 45 46 49 46 50 54 59 69 78 70 76 80 82 93 94 45 61 95 91 94 96 97 96 96 96 96 98 99 100 100 100 100 97 82 78 75 69 55 43

GFSSGP_700_rhum_138.txt.gz
RH
20 20 20 18 23 17 16 21 23 21 20 15 38 40 49 35 46 60 47 63 66 57 47 40 43 44 40 39 34 31 34 37 38 33 28 24 20 19 18 15 13 11 10 10 12 17 22 21 24
21 21 22 20 19 14 17 25 24 22 14 13 42 25 37 32 24 36 70 69 61 49 33 24 20 20 27 39 45 44 37 33 39 43 37 31 24 21 20 18 15 13 12 11 12 16 20 22 30
24 23 26 26 20 14 18 26 24 14 12 13 14 17 20 24 31 48 61 54 41 33 26 22 22 24 23 22 28 36 42 45 38 35 41 38 32 25 22 20 18 16 14 14 15 16 19 21 27
26 25 24 25 21 25 26 27 23 15 13 13 17 17 20 29 39 40 36 36 30 26 21 24 26 26 28 25 21 23 37 47 54 45 35 38 42 32 26 23 20 19 18 16 16 18 20 20 26
28 27 27 25 26 26 24 24 23 23 16 15 17 22 26 26 28 26 25 24 23 26 27 27 28 29 30 30 30 29 27 24 44 61 50 40 40 37 38 28 24 20 18 18 17 19 22 22 26
32 28 26 24 26 26 25 24 23 21 20 21 24 28 24 26 25 24 24 24 26 27 27 26 28 30 30 28 26 28 29 28 28 48 62 50 45 41 35 39 35 29 30 30 22 21 24 25 28
34 31 28 26 26 26 27 26 25 25 28 26 25 42 28 28 27 26 26 27 28 28 28 28 31 31 27 26 25 25 26 32 34 62 61 62 49 45 42 38 38 36 31 35 36 27 22 26 32
35 33 32 31 28 27 27 26 27 26 26 26 30 39 36 31 32 31 30 30 30 31 31 28 27 27 28 27 26 20 19 23 32 48 78 80 59 52 51 42 39 29 32 39 33 28 24 25 32
39 33 30 32 31 32 27 26 26 26 24 25 26 27 28 28 28 29 28 29 29 28 28 28 28 28 28 26 17 11 14 18 26 34 52 70 83 69 55 54 47 42 34 36 40 36 34 23 28
38 35 34 34 33 31 30 30 28 26 25 25 24 24 24 24 24 24 25 25 25 25 25 25 24 23 20 13 9 12 17 21 26 36 49 48 76 82 80 67 57 49 41 47 40 39 39 35 26
33 34 35 34 34 34 33 32 31 29 24 26 25 24 23 22 22 22 23 23 22 21 20 18 16 14 12 12 12 13 15 19 23 38 43 43 45 75 80 83 76 68 57 52 51 47 44 41 30
28 31 33 33 33 33 31 29 27 26 25 26 26 24 24 22 23 24 24 24 20 17 17 16 15 14 16 17 18 18 18 16 14 16 23 41 55 54 80 94 87 87 81 67 60 61 60 52 44
22 21 24 25 25 26 25 26 27 25 26 26 26 25 24 24 23 22 22 19 17 17 17 17 18 18 19 20 20 20 20 20 20 20 18 17 23 37 57 66 94 99 87 85 79 67 61 58 52
14 14 16 19 21 20 22 23 24 21 22 22 23 24 24 22 20 18 18 18 18 18 18 19 19 19 19 20 20 20 20 20 21 21 22 21 19 17 15 24 35 71 92 99 94 90 84 75 69
11 13 15 13 14 16 15 23 20 21 23 22 22 22 21 20 19 19 19 20 20 20 20 20 20 21 20 20 21 21 21 21 21 22 22 22 22 21 19 16 15 16 22 46 77 97 97 93 91
11 11 19 25 16 16 19 21 22 22 23 24 25 25 24 24 24 23 23 24 25 24 24 25 26 26 26 24 23 23 22 23 23 22 23 23 23 23 22 21 19 18 18 18 25 62 61 92 100
14 14 22 24 18 23 20 27 28 25 26 27 29 30 30 30 29 29 29 29 28 27 27 27 27 27 27 27 27 26 24 23 23 23 22 22 23 23 23 23 22 20 20 22 22 19 20 24 29
19 21 21 21 29 27 28 28 31 28 30 30 30 30 31 31 31 28 26 26 26 27 28 27 27 27 27 27 27 26 26 25 25 24 23 23 23 23 24 24 25 25 23 20 23 26 26 23 21
21 27 26 25 31 23 32 31 31 31 31 32 32 33 32 28 26 27 26 26 26 27 30 34 32 30 28 27 27 29 34 36 36 35 31 26 24 24 26 27 28 29 27 24 23 22 25 24 23
30 32 29 33 26 31 34 32 32 33 34 33 32 28 25 26 28 26 26 27 29 37 37 35 36 39 35 31 29 26 24 25 27 34 36 40 39 35 29 27 31 36 34 31 30 28 26 29 26
36 33 32 36 37 37 35 27 26 28 26 26 23 21 25 27 26 27 28 31 37 36 35 35 37 36 33 30 28 26 26 27 26 26 25 26 30 34 36 36 36 34 37 37 35 35 36 33 31
32 40 38 40 39 26 33 22 23 34 25 22 22 24 24 26 27 33 35 38 36 34 36 34 32 31 30 26 24 22 22 22 21 21 22 23 22 21 21 24 25 27 34 38 39 39 38 36 34
43 35 43 40 36 35 31 31 21 25 32 35 22 27 27 31 34 37 38 33 34 37 36 35 33 31 29 27 27 27 26 27 30 32 32 32 29 27 26 21 20 20 20 24 27 35 38 36 33
40 41 43 43 38 32 25 28 20 27 30 32 30 31 33 36 37 36 35 37 39 35 37 38 38 31 37 51 56 56 56 56 54 54 53 54 55 55 51 43 35 26 27 26 26 23 25 29 34
44 45 34 32 33 25 33 29 23 26 35 31 34 35 34 34 36 37 40 38 37 42 49 44 38 54 72 84 78 65 60 58 56 58 58 58 58 59 59 60 59 53 47 46 41 38 32 29 29
52 44 35 31 22 20 38 28 23 28 30 34 34 35 36 37 40 40 42 40 44 46 53 45 58 76 92 86 78 69 77 82 80 82 85 88 87 87 87 85 78 74 71 68 66 57 47 40 36
51 44 42 40 32 35 24 21 24 29 33 32 33 39 41 39 40 43 44 45 50 56 54 54 68 91 93 81 89 94 94 93 96 96 91 91 92 93 96 98 100 100 97 85 76 70 62 60 51
38 38 40 38 40 33 22 22 26 36 37 36 37 40 42 43 44 48 47 49 56 67 57 67 73 89 89 85 88 95 97 98 97 96 94 96 98 99 98 98 99 100 100 100 94 81 69 68 68
41 41 39 39 37 34 36 36 36 37 38 34 39 44 49 46 48 50 46 43 74 68 70 73 90 34 47 55 62 68 95 96 96 96 98 96 94 98 99 98 98 98 99 100 100 97 91 83 79
38 39 42 45 37 40 38 47 34 36 33 38 45 50 55 52 50 48 46 50 75 75 77 83 90 7 21 22 27 50 47 27 78 98 97 96 98 96 98 99 99 100 99 100 100 91 87 84 78

GFSSGP_700_rhum_141.txt.gz
RH
19 19 18 16 23 15 12 14 17 15 16 26 26 43 55 61 66 78 86 50 66 56 46 44 45 46 46 45 43 41 36 32 30 28 25 25 26 25 26 23 18 15 15 15 20 25 28 25 26
20 21 19 25 19 13 12 18 17 18 20 24 35 35 46 66 64 76 74 64 62 50 37 28 24 22 24 29 36 40 48 47 42 36 35 32 29 26 22 25 22 19 16 18 19 25 29 27 25
22 22 26 23 18 13 15 19 20 19 16 20 27 38 50 62 56 33 48 61 48 34 37 29 24 22 22 23 23 24 34 45 50 51 44 39 33 33 29 22 23 22 20 17 18 23 28 30 27
25 27 26 21 17 20 20 22 21 20 16 17 26 47 20 27 30 36 62 61 53 37 29 22 21 24 25 27 27 26 24 26 35 53 57 50 43 37 42 36 24 22 21 19 19 20 22 28 27
28 29 23 20 18 22 21 22 24 20 24 22 29 45 33 28 39 28 21 30 28 23 23 26 28 27 28 30 30 29 29 28 28 29 48 63 54 45 39 39 36 27 22 24 22 19 21 22 24
32 27 22 18 19 22 21 23 22 26 27 26 30 48 44 51 23 26 26 25 26 28 28 30 30 29 30 31 27 26 24 23 27 29 41 75 68 55 48 41 37 38 38 30 36 34 23 24 27
32 26 22 20 20 22 23 24 22 22 26 32 35 41 43 24 25 24 25 26 28 31 31 31 30 29 28 27 27 26 25 24 23 30 37 66 91 74 59 49 44 38 38 40 33 39 38 28 25
33 28 23 22 20 22 25 24 24 21 26 28 33 36 46 26 27 28 30 30 31 32 32 31 29 28 27 26 27 26 24 14 15 24 34 58 75 87 84 59 50 45 41 37 34 41 34 31 25
32 26 20 21 23 24 26 25 24 24 22 26 26 36 38 35 34 34 32 32 31 30 29 28 28 26 25 24 24 22 13 11 14 16 26 45 60 76 79 79 67 58 48 43 34 34 43 35 33
30 23 22 27 28 28 27 25 23 24 22 26 25 25 27 26 26 26 25 24 24 24 24 23 23 22 20 18 16 12 11 12 13 14 19 34 54 78 87 84 86 84 66 55 48 44 36 36 40
28 28 32 30 29 28 26 25 24 24 24 26 38 26 24 24 24 24 23 23 23 24 23 21 19 17 15 14 13 13 13 13 13 12 16 30 42 46 58 80 88 87 87 82 66 53 49 49 47
25 27 29 26 29 32 27 26 24 26 27 27 25 26 26 25 23 22 23 23 23 23 19 17 17 16 16 16 17 18 19 20 19 19 18 15 15 27 47 60 68 99 91 96 92 82 67 61 65
20 21 22 26 27 27 26 26 26 28 27 27 26 25 25 24 24 24 23 22 20 18 17 17 17 17 18 18 19 20 20 20 20 21 21 21 20 18 14 19 35 56 67 92 98 95 94 87 80
24 18 22 23 23 24 18 23 21 21 18 19 20 20 22 23 23 22 20 18 18 18 18 18 18 19 19 19 19 19 19 20 20 21 21 21 21 21 21 19 17 15 23 42 60 71 97 94 97
13 13 19 19 19 22 16 22 25 15 17 18 20 21 20 21 21 20 19 19 19 20 21 21 21 21 20 21 21 22 22 22 22 22 22 22 22 22 22 22 21 20 18 16 16 26 52 75 97
19 19 15 17 23 23 15 17 28 23 21 20 20 20 22 23 23 23 24 25 26 27 27 27 27 26 26 25 24 24 24 24 24 24 23 23 23 23 22 22 22 22 21 20 19 18 17 21 54
20 12 15 20 22 22 23 25 35 26 26 25 25 26 27 28 28 30 31 30 28 27 26 26 25 26 26 26 26 26 26 26 26 25 25 24 24 23 23 23 23 22 22 22 22 21 21 20 18
16 17 14 16 22 24 21 20 31 26 27 27 30 26 28 30 31 31 28 26 26 24 23 25 25 26 27 28 28 27 26 26 25 26 24 22 21 21 22 23 24 24 25 24 25 24 23 23 22
20 19 17 16 19 27 25 23 22 38 33 37 29 29 31 31 28 24 24 23 23 24 24 25 27 27 26 24 25 25 25 26 25 24 23 22 22 25 25 24 23 24 26 28 29 29 27 26 27
21 19 19 19 22 29 26 24 25 30 42 38 50 35 29 22 22 23 22 24 26 28 32 33 29 28 29 31 31 31 30 28 25 24 25 25 24 22 21 21 24 30 28 27 33 35 33 30 29
22 22 21 22 25 28 27 26 22 24 41 26 23 32 23 23 23 24 25 29 33 35 32 30 32 34 32 27 24 23 24 22 22 21 20 19 20 21 21 23 24 26 34 37 36 39 41 40 34
24 21 28 28 29 23 25 20 17 24 38 27 19 20 20 21 23 24 31 33 35 32 32 34 34 28 26 25 25 22 20 22 24 24 25 25 28 26 21 19 19 21 23 23 28 33 34 38 41
27 41 36 33 31 27 23 22 18 24 29 34 41 21 24 24 27 28 28 32 33 33 36 34 32 33 34 30 29 32 42 44 43 44 43 46 47 51 50 43 35 30 24 23 21 20 21 26 28
40 37 34 32 29 28 23 22 19 20 27 27 34 51 32 30 28 30 34 35 36 37 38 37 39 41 40 50 60 69 67 59 56 56 56 55 54 53 52 50 51 52 51 46 39 31 28 24 24
37 32 30 33 32 29 23 22 19 21 29 34 35 51 31 26 33 36 37 39 40 40 40 42 45 49 57 73 81 79 73 75 82 84 81 80 81 80 81 79 78 72 64 63 63 53 42 39 29
34 32 31 28 25 18 26 21 20 28 26 25 26 30 28 34 35 39 39 40 44 43 38 38 55 57 76 83 78 85 93 97 98 97 96 95 90 87 88 91 93 94 93 91 82 69 63 61 47
43 45 36 35 34 32 25 21 20 31 31 28 30 28 35 34 40 45 42 42 45 44 31 50 56 68 83 71 72 80 70 94 96 99 94 89 91 95 94 94 92 96 98 100 100 98 89 76 71
48 36 37 33 35 32 20 19 25 45 46 52 54 67 71 47 47 47 41 46 49 42 30 56 65 80 67 50 66 51 43 15 88 95 98 99 96 93 92 96 96 96 97 98 99 100 100 99 91
50 39 36 33 32 33 34 33 36 37 43 36 42 49 67 95 59 49 48 50 41 28 40 62 72 61 40 48 31 34 50 46 16 80 96 97 97 97 97 98 100 97 97 98 98 98 99 100 100
37 36 36 44 36 29 31 44 44 52 54 43 56 61 67 77 43 40 46 33 39 31 55 73 82 26 11 54 48 28 18 54 50 13 22 97 96 96 96 97 99 99 98 98 98 98 98 99 99

GFSSGP_700_rhum_144.txt.gz
RH
17 17 17 14 25 21 15 14 14 13 18 23 34 49 61 66 58 90 99 67 28 48 41 40 41 40 39 39 38 36 38 40 38 35 32 28 28 29 24 20 18 18 15 14 20 26 30 26 25
20 19 18 23 26 17 15 15 14 16 20 26 32 48 55 77 87 100 72 71 54 26 48 42 34 30 25 22 21 21 22 28 35 46 44 40 34 32 31 24 20 19 17 16 15 23 30 29 26
22 21 20 28 21 17 17 18 18 18 17 24 29 48 63 75 78 72 67 62 19 17 35 37 32 21 20 22 24 25 23 22 25 33 46 50 46 40 38 42 32 23 20 17 15 17 23 29 27
23 24 23 22 18 19 20 21 18 16 15 17 29 34 62 82 80 56 49 24 22 33 34 28 22 25 27 28 29 29 29 28 28 29 31 43 51 50 48 44 45 33 24 21 18 16 17 20 23
26 29 27 22 18 20 20 21 21 18 16 19 41 55 42 34 21 23 26 39 36 28 25 24 26 28 28 28 30 29 26 25 24 26 30 37 44 62 55 50 48 48 40 28 22 26 17 16 17
32 29 24 20 17 19 20 21 21 22 24 23 38 59 55 20 22 31 26 25 25 24 26 28 30 30 30 31 30 29 27 26 25 24 26 33 40 60 70 62 54 48 48 47 41 32 35 24 17
32 29 25 20 20 21 22 22 20 22 25 31 43 47 44 30 23 26 26 27 27 29 31 32 31 31 29 28 27 26 24 25 25 21 18 28 48 58 75 82 70 60 51 46 51 50 35 38 34
31 29 24 22 20 20 22 22 21 20 25 30 34 48 46 36 27 26 26 28 29 30 31 32 31 30 28 27 25 24 23 22 22 14 12 15 27 59 83 82 89 81 70 60 53 49 40 38 35
31 29 22 18 18 22 24 22 22 21 23 23 29 43 41 41 35 32 30 30 30 29 28 27 26 26 24 23 23 22 20 18 14 11 12 13 17 36 53 76 91 84 80 77 65 54 50 33 36
28 25 21 25 25 25 25 24 24 23 24 23 24 27 40 41 37 28 26 25 24 24 24 24 24 24 23 21 18 16 14 13 13 12 12 12 14 22 43 75 94 99 97 83 74 63 55 49 41
25 25 28 28 27 25 24 24 23 22 26 36 35 26 25 26 25 24 24 24 25 24 24 24 24 21 18 17 16 15 15 14 15 16 16 13 11 16 30 40 46 71 98 99 97 84 72 71 58
20 23 27 26 26 27 28 25 24 24 29 26 24 24 24 25 27 27 26 25 24 24 22 20 18 17 17 17 17 17 18 19 20 20 20 20 20 19 14 13 25 43 56 71 98 93 96 94 83
20 18 20 25 24 25 28 26 26 27 26 26 27 27 26 26 25 25 25 24 23 20 18 18 18 17 17 18 18 18 18 19 19 20 20 20 20 20 21 21 19 14 15 31 52 66 82 93 94
25 21 21 20 21 22 21 23 25 25 23 22 22 21 21 20 19 19 21 21 20 20 19 19 19 19 19 19 19 19 19 19 20 20 21 22 22 22 22 22 22 21 20 17 14 25 30 40 58
16 15 17 18 18 19 21 20 24 23 18 14 14 15 17 18 18 18 19 19 20 20 20 20 20 20 20 21 22 22 23 23 24 24 25 25 25 24 24 24 23 23 22 22 20 20 18 16 25
17 18 17 14 17 20 17 16 22 21 21 21 19 18 18 20 20 22 23 24 25 26 26 26 26 26 26 26 26 26 25 25 25 26 26 26 26 26 26 26 25 24 23 23 22 22 21 21 18
20 16 14 17 20 19 19 24 24 23 24 26 20 19 20 22 23 24 27 29 29 29 28 26 24 21 19 17 16 16 16 16 17 17 17 17 16 15 16 18 22 24 24 24 23 23 23 22 22
15 18 15 13 21 20 19 19 30 25 26 28 28 28 23 25 23 29 30 29 26 24 22 20 19 18 18 17 17 17 18 18 19 19 19 19 18 17 18 17 18 20 22 24 24 24 25 25 24
21 19 18 15 20 22 23 23 19 30 38 37 40 40 30 27 27 27 22 23 23 22 19 18 16 17 18 19 20 20 20 19 18 18 18 17 17 17 16 16 16 18 20 20 23 28 28 26 28
25 20 18 16 15 18 23 23 20 22 35 43 45 47 47 33 21 18 19 20 18 16 18 20 22 24 25 27 25 23 21 19 18 17 16 16 16 15 15 15 14 14 18 20 20 21 27 32 35
26 23 20 18 18 23 26 25 23 23 30 41 43 48 52 37 22 20 20 19 20 20 22 26 28 30 31 30 27 24 23 21 19 18 18 19 23 23 22 20 19 16 14 17 20 22 23 26 36
32 27 21 21 22 21 20 21 18 22 29 39 43 31 36 21 20 22 19 18 18 25 31 32 33 34 34 31 27 28 25 21 24 26 30 34 39 39 40 36 36 35 29 23 18 19 21 24 24
42 32 28 26 28 27 24 22 18 17 30 40 37 24 19 16 18 17 17 20 24 29 34 35 37 37 38 24 35 37 43 55 59 52 50 51 52 55 52 49 50 50 50 50 46 37 32 30 26
33 33 32 33 29 30 24 21 19 19 24 32 41 44 28 31 18 18 23 27 32 33 36 39 41 40 32 38 47 58 68 73 71 72 69 73 79 81 80 77 76 77 72 64 58 56 52 47 42
37 35 32 35 34 34 24 21 19 21 25 28 36 44 51 28 20 25 27 33 36 36 40 44 44 40 31 51 64 73 72 57 41 86 86 85 88 94 94 89 86 86 88 89 86 79 64 56 57
37 34 30 31 33 26 21 21 27 24 28 31 32 34 27 19 24 24 30 38 36 37 45 46 46 32 44 62 73 72 62 49 43 58 91 95 94 90 94 92 91 90 91 95 95 96 94 83 66
32 34 29 31 33 37 32 26 31 32 36 34 27 27 31 35 38 38 40 45 36 44 47 48 37 29 61 70 62 46 55 66 58 41 71 96 97 100 96 96 96 95 96 96 98 99 100 100 99
36 38 44 41 43 40 25 19 33 42 45 52 46 49 61 64 73 46 47 43 40 49 47 32 25 53 68 47 52 38 30 45 66 54 41 95 96 96 97 95 96 98 98 98 98 98 99 100 100
41 45 40 37 35 36 39 42 36 42 45 47 43 47 50 55 68 57 46 41 36 41 31 33 34 65 53 24 57 42 31 16 13 33 39 44 96 96 96 97 96 96 98 97 97 98 97 98 99
40 47 42 41 35 31 32 38 38 45 54 52 45 45 59 65 66 63 44 40 30 24 33 38 55 69 24 21 33 20 12 11 9 9 8 9 28 94 96 96 96 98 98 98 99 98 97 97 97

GFSSGP_700_rhum_147.txt.gz
RH
18 17 17 13 13 22 20 17 14 14 16 30 23 27 42 56 64 74 94 88 62 55 45 38 37 38 37 32 26 23 22 22 24 28 33 35 33 29 29 24 20 19 17 13 12 15 17 20 22
20 18 17 18 23 23 20 17 17 24 27 28 48 39 46 61 66 80 77 58 65 54 46 43 36 32 24 21 20 21 21 22 22 22 24 31 36 39 34 33 26 21 21 19 14 14 14 16 18
22 19 18 23 26 23 20 18 18 18 17 31 41 49 53 79 85 74 68 31 36 50 44 37 33 22 24 24 25 25 26 27 27 27 28 26 30 47 48 49 50 40 25 24 27 15 14 14 16
24 22 22 23 21 21 20 19 18 16 17 20 25 38 58 80 67 60 34 32 46 43 35 30 22 21 24 26 26 28 28 25 24 24 24 27 30 42 55 56 53 48 44 28 26 22 16 14 14
25 24 26 25 21 23 20 19 20 17 15 24 34 49 43 64 45 32 36 39 38 32 25 22 23 25 27 28 29 30 30 28 27 26 25 24 25 33 55 71 66 57 53 50 38 26 29 23 17
26 31 28 26 23 20 19 20 22 22 22 24 34 35 39 37 29 34 38 31 26 26 24 24 26 28 29 30 29 28 27 26 24 24 25 24 20 27 43 70 79 71 62 54 48 47 41 33 33
27 32 30 29 26 20 20 19 22 24 31 41 43 40 38 41 44 47 34 29 27 25 26 28 28 29 30 30 29 27 26 24 23 23 22 20 13 16 28 42 70 82 72 63 56 44 40 40 34
33 33 30 26 23 23 21 20 21 24 27 38 42 42 39 38 36 31 29 28 28 28 29 30 30 29 27 26 25 24 24 24 22 20 19 15 12 13 20 45 70 80 83 75 68 60 46 40 39
29 31 24 24 24 23 22 22 21 20 23 31 36 39 36 39 34 30 27 28 29 30 29 26 24 24 24 24 24 24 22 19 17 15 15 14 14 13 14 24 46 64 79 77 61 69 69 52 48
28 26 25 28 25 24 23 23 23 22 21 21 22 29 33 31 36 34 32 27 26 24 24 25 25 25 24 24 21 19 17 16 15 14 13 13 12 11 12 17 27 51 81 90 90 74 71 71 69
27 23 27 28 27 25 25 24 23 23 25 24 23 23 23 24 26 26 25 25 26 26 26 25 25 22 20 18 17 17 17 17 17 17 17 18 18 18 15 12 14 23 34 45 82 93 91 90 75
19 24 23 27 27 25 25 24 24 24 25 25 25 24 24 24 24 25 27 28 26 25 25 23 20 18 18 18 17 18 18 18 18 19 19 19 20 20 20 20 20 18 14 17 34 42 73 98 89
20 18 19 22 23 25 27 26 25 24 24 29 29 28 27 26 26 27 25 22 20 21 20 20 19 19 18 19 19 19 19 19 19 19 19 19 20 20 20 20 21 21 21 21 19 16 34 53 64
23 21 21 20 17 16 15 27 27 27 27 26 26 27 27 25 18 15 16 17 18 18 19 19 20 20 20 20 20 21 22 22 23 24 25 25 24 24 24 24 24 23 23 23 23 22 20 18 21
23 22 22 20 17 21 21 20 24 20 20 20 16 13 12 13 14 14 14 15 17 19 20 22 23 25 26 26 26 26 25 24 23 22 21 21 20 22 23 25 27 27 26 25 24 24 24 22 22
24 22 14 9 16 18 19 15 17 18 18 17 18 20 19 14 14 14 16 19 21 23 25 26 26 26 24 19 15 12 12 11 11 11 10 9 9 8 8 10 14 16 17 21 25 25 24 24 23
16 16 14 14 15 18 18 20 19 21 22 21 22 20 20 20 17 18 21 23 26 27 26 22 18 15 13 13 13 13 14 14 13 12 11 10 9 8 7 7 7 11 15 18 20 20 23 24 24
15 21 19 18 17 18 19 20 20 24 25 25 23 22 24 23 21 22 26 28 25 19 17 16 14 13 12 12 13 14 15 16 17 16 17 15 14 14 13 12 11 10 12 15 17 18 21 23 26
16 22 18 18 20 20 21 21 22 25 25 26 23 26 26 26 21 20 24 18 17 17 16 13 12 10 11 12 14 16 16 16 17 16 16 15 14 14 13 12 12 11 11 11 12 15 18 21 22
27 22 19 17 20 19 20 20 18 22 23 25 28 33 34 32 24 18 18 16 15 12 10 9 10 13 15 18 20 20 18 14 12 14 16 17 17 16 15 13 11 11 10 9 10 13 15 16 24
30 26 24 21 20 19 22 24 23 20 23 34 40 42 44 41 26 19 14 12 10 9 10 12 13 16 20 21 22 22 12 13 19 22 25 27 28 31 32 31 29 27 25 22 21 19 23 21 21
31 30 28 26 22 21 21 25 22 22 22 32 43 46 50 44 24 14 13 10 9 10 12 14 14 18 22 24 25 17 13 27 36 48 53 51 42 39 41 50 52 48 46 43 41 39 35 36 30
37 34 36 35 24 23 23 27 25 21 25 34 41 43 48 34 18 18 13 12 11 12 14 14 16 22 28 30 29 18 35 46 58 59 55 56 53 47 54 68 79 79 76 71 66 59 54 50 49
47 47 37 33 31 39 32 29 24 20 19 33 40 42 41 25 22 22 17 16 18 17 17 15 23 28 36 33 20 33 46 60 64 62 53 53 66 62 76 84 91 87 86 84 83 85 82 74 60
46 40 39 44 44 47 26 28 25 22 21 23 30 38 36 35 30 25 24 21 28 27 17 15 26 35 36 22 31 47 60 56 61 63 55 63 77 83 92 95 97 92 89 89 89 91 91 92 90
37 35 37 46 55 44 33 29 30 25 25 35 38 38 40 38 36 31 27 21 35 23 17 18 31 37 23 26 52 56 53 44 36 35 36 33 83 93 94 98 96 94 95 96 98 99 97 100 100
48 40 38 33 35 42 34 33 33 31 32 38 38 40 28 26 33 37 28 36 40 27 23 19 25 21 26 45 56 58 47 32 21 12 15 14 94 96 97 97 97 96 96 96 96 97 97 97 98
56 39 37 36 53 57 38 33 32 35 34 35 34 31 34 36 39 40 32 44 54 37 26 28 21 27 32 57 43 52 37 22 11 9 11 8 31 92 96 96 95 93 94 95 95 96 97 97 97
58 59 37 42 38 57 66 48 40 37 38 44 46 44 48 47 46 40 52 60 62 45 34 38 32 35 44 46 43 37 23 11 12 11 8 7 7 34 58 96 97 93 93 87 96 96 96 97 98
46 41 39 42 41 41 40 41 41 46 50 50 50 47 54 55 58 64 68 67 59 49 30 44 42 34 55 34 36 27 11 12 12 11 11 8 7 6 7 18 83 93 96 96 96 94 94 98 98

GFSSGP_700_rhum_150.txt.gz
RH
15 14 14 13 13 18 22 22 17 17 19 23 13 15 37 61 63 82 99 85 52 48 45 48 52 46 41 29 24 22 21 21 22 22 23 26 31 35 31 25 23 21 19 15 13 12 13 16 20
16 15 15 15 20 21 24 26 18 19 20 25 17 24 31 48 68 93 99 87 94 76 64 58 58 34 24 22 23 24 24 24 25 26 26 24 24 33 42 39 30 25 21 24 17 14 13 13 15
18 17 16 18 24 23 19 18 18 18 23 33 23 27 31 62 71 65 96 72 70 70 57 48 31 25 23 25 25 25 25 26 26 24 24 24 25 27 32 50 53 47 40 32 24 31 15 15 15
20 20 18 22 23 22 20 18 17 22 32 26 28 27 40 50 71 57 81 87 68 57 33 29 26 24 25 25 26 26 27 28 28 26 26 25 24 23 26 34 52 55 48 41 35 27 24 19 18
22 20 23 26 26 24 20 20 18 17 17 19 31 30 35 57 50 35 32 41 50 39 32 30 28 28 26 27 28 28 27 26 25 25 24 24 24 23 21 25 37 49 54 52 46 45 36 28 29
25 24 24 28 25 23 21 20 17 16 16 17 25 28 34 40 48 40 39 45 52 34 31 30 30 28 28 28 28 28 28 27 25 24 24 23 22 21 16 17 29 43 53 58 56 51 48 50 41
25 27 23 30 27 25 20 21 22 23 22 23 26 29 28 41 38 41 41 44 35 31 29 28 28 29 29 29 27 26 25 24 24 24 24 22 21 19 15 13 18 37 54 66 70 62 58 51 47
27 32 26 29 27 26 23 21 24 29 27 28 36 37 31 39 40 40 39 34 32 30 29 29 29 28 25 24 25 25 25 25 24 20 18 16 16 16 15 14 14 21 50 60 69 76 75 70 61
30 29 22 28 28 24 22 21 22 26 29 27 33 34 32 35 35 35 35 33 31 30 30 28 25 24 25 25 25 24 23 21 18 16 16 15 14 14 13 13 13 14 23 43 59 71 80 69 72
30 25 25 28 26 23 23 22 22 22 23 29 30 32 32 32 36 38 36 36 29 26 25 25 26 26 25 24 21 19 17 17 17 16 16 16 16 16 15 14 12 11 14 24 48 72 88 90 86
26 25 26 28 26 24 24 24 23 22 22 21 21 22 22 23 24 27 29 26 26 27 27 27 26 25 22 19 18 18 18 18 18 18 17 18 18 18 19 19 19 18 15 11 16 39 61 83 90
22 24 25 25 27 25 25 24 24 24 24 23 22 23 24 24 24 24 25 26 27 26 24 23 22 20 19 19 18 18 19 19 19 19 19 19 19 19 19 19 19 20 20 20 19 17 13 22 45
23 20 20 21 23 26 26 25 24 24 24 25 25 27 28 27 27 27 28 27 19 17 18 19 19 20 19 19 20 20 21 22 23 23 23 24 24 23 23 22 21 21 21 21 20 20 21 20 17
24 22 21 20 21 19 20 26 26 25 26 26 25 27 27 28 28 27 18 14 16 17 17 19 20 21 23 24 25 26 25 24 21 18 16 14 14 14 14 17 20 24 26 26 25 24 23 22 22
26 24 23 21 21 17 17 23 23 27 27 28 26 23 20 21 14 13 15 16 16 17 20 22 23 24 25 23 18 14 12 11 10 9 8 8 7 7 7 7 8 8 10 11 16 23 27 26 25
25 24 23 21 21 19 19 20 19 14 17 18 19 19 15 19 18 15 15 16 17 20 22 23 22 17 13 12 11 9 8 8 7 6 6 5 5 5 5 4 4 5 7 8 9 10 12 16 23
24 23 20 13 12 14 19 19 18 14 14 16 20 19 20 20 20 20 19 20 22 24 22 16 14 12 10 9 8 8 8 8 8 8 9 10 10 10 9 9 8 8 7 8 11 11 11 11 15
22 19 15 17 15 17 17 18 18 20 21 21 21 22 20 19 22 23 18 20 21 16 15 12 10 8 7 7 8 9 11 12 12 12 11 10 10 10 9 9 9 9 8 8 8 10 12 12 12
25 22 24 20 18 19 17 18 19 20 22 23 21 22 23 22 24 25 23 18 16 13 10 8 7 7 7 8 9 10 10 10 10 10 8 8 10 13 17 18 18 17 16 14 13 9 7 10 11
30 34 30 23 19 21 19 20 20 20 19 19 19 20 22 23 26 29 22 18 13 11 8 8 8 8 7 6 7 10 11 11 10 10 14 21 25 27 27 25 25 26 25 27 28 24 20 18 20
37 37 28 25 21 21 21 22 21 22 23 27 30 32 31 29 32 34 24 14 13 12 11 11 11 9 7 7 10 13 12 12 13 20 27 35 39 42 38 34 29 30 34 39 46 47 38 30 30
41 36 32 29 28 26 23 26 22 22 22 23 26 32 36 36 36 40 18 16 16 15 17 16 16 15 11 10 11 11 13 12 21 34 48 55 53 44 49 41 41 48 61 71 76 74 64 51 44
43 37 32 31 34 37 27 24 23 24 24 22 23 31 41 43 45 43 19 20 20 20 19 20 19 15 11 10 11 15 14 27 39 50 51 44 22 38 55 56 67 82 87 89 86 83 82 80 73
50 44 45 46 43 41 36 27 28 27 26 24 22 31 40 45 50 46 23 23 24 22 26 22 16 13 11 12 17 18 25 40 50 43 27 19 19 38 70 77 88 94 94 92 89 90 90 88 89
51 48 45 45 45 48 36 33 34 31 25 23 21 28 42 47 49 41 28 27 27 35 35 33 22 17 16 20 23 22 38 48 37 24 13 19 18 23 75 87 91 95 97 97 98 97 97 95 95
62 50 51 79 66 46 34 32 28 26 25 23 24 33 45 49 40 31 32 33 37 45 47 36 27 20 27 30 26 33 43 37 26 12 13 10 7 59 87 92 93 95 96 95 97 96 97 97 96
62 49 48 52 46 46 34 36 34 31 28 24 30 42 45 43 39 32 40 35 43 52 54 47 40 25 35 38 29 36 41 26 14 10 10 8 7 35 82 95 96 95 89 92 95 96 97 96 96
88 76 44 69 81 60 41 36 31 32 32 34 43 44 41 31 36 44 37 40 58 61 58 54 44 24 36 39 34 41 35 26 11 11 11 10 7 8 46 52 80 96 96 94 93 96 96 96 96
54 60 69 63 47 61 65 45 33 35 33 34 36 35 36 43 43 46 48 58 65 59 58 58 43 30 40 43 38 44 40 24 11 12 11 11 10 8 7 10 11 37 96 97 96 97 98 97 97
54 54 57 77 82 68 36 44 37 38 38 41 41 45 47 52 54 37 46 60 58 58 59 61 44 42 51 47 41 46 36 22 12 11 10 11 11 11 10 8 7 7 10 55 95 92 96 97 98

GFSSGP_700_rhum_153.txt.gz
RH
12 12 13 14 13 18 19 22 30 22 25 30 61 68 70 64 69 60 61 46 53 44 37 35 51 47 49 51 29 24 24 24 24 24 23 23 25 31 37 36 30 24 20 20 16 14 15 16 16
13 13 15 15 16 20 22 24 18 22 18 29 51 57 65 76 71 56 57 38 54 40 36 63 55 56 48 26 25 26 26 26 26 27 25 24 25 26 28 36 43 36 28 22 23 18 16 18 20
16 15 16 17 19 23 21 22 21 20 22 27 23 58 50 76 55 54 54 38 46 59 58 58 55 40 25 26 27 27 28 28 28 27 25 25 25 24 24 28 38 50 49 47 34 25 31 19 19
18 18 18 19 26 22 20 19 18 18 29 30 28 28 35 46 61 69 52 57 52 53 55 53 38 30 27 27 28 29 29 29 28 26 26 24 24 23 24 23 27 43 52 51 51 44 34 25 22
19 21 20 23 24 23 20 22 26 26 25 24 25 29 41 50 68 73 47 54 48 52 43 35 31 28 29 30 31 30 30 28 28 27 26 24 24 24 23 22 20 26 43 56 56 53 52 42 29
21 21 23 27 24 24 23 22 28 30 25 19 25 29 34 66 98 71 57 50 55 40 34 33 31 32 33 32 31 30 29 27 26 25 25 25 23 22 21 20 16 16 25 39 57 63 59 57 51
23 24 25 28 26 23 23 22 21 18 19 20 26 28 26 39 80 47 56 59 60 39 36 36 35 34 33 31 29 26 25 25 26 25 23 20 17 16 16 17 17 15 15 24 48 66 70 64 59
30 27 26 26 28 27 25 22 24 19 20 19 22 33 26 33 40 43 48 50 47 36 36 36 34 31 27 25 25 26 26 24 23 21 18 16 15 15 14 14 14 14 15 16 35 65 79 84 74
29 27 27 27 28 26 24 24 23 24 29 28 28 29 31 38 40 41 38 41 37 36 36 33 27 25 25 26 26 26 22 18 17 16 16 15 15 15 15 14 14 14 13 14 16 29 50 72 87
29 24 25 24 27 25 25 24 23 27 30 31 29 27 30 36 38 38 39 38 37 35 28 25 25 26 26 26 24 20 17 17 17 17 17 17 17 16 17 17 17 17 17 16 13 15 24 42 74
26 22 23 30 27 24 24 23 23 23 23 22 23 24 26 24 28 38 40 41 32 26 27 27 27 26 24 21 18 18 18 18 18 18 18 18 18 18 18 18 18 19 19 19 20 20 17 14 23
24 24 26 27 28 27 25 24 23 24 24 24 24 25 26 24 26 30 32 28 26 27 27 24 22 21 20 19 19 19 19 20 20 22 22 22 23 23 22 22 21 20 20 19 19 19 20 20 20
24 22 22 23 26 27 26 26 25 24 24 24 24 25 28 27 28 28 28 28 28 24 16 17 18 18 18 19 20 22 22 22 21 19 16 14 12 11 11 12 14 18 22 24 23 22 21 20 20
24 23 22 21 21 22 25 26 26 25 25 25 25 26 27 29 28 28 28 22 15 15 15 16 18 19 22 23 22 18 14 12 11 10 8 7 6 6 6 5 6 6 6 7 8 12 19 24 24
22 24 24 23 21 20 21 20 19 24 26 26 27 28 28 24 21 18 14 13 12 14 17 19 20 22 19 14 12 11 9 8 6 6 6 5 5 4 4 4 3 4 4 4 4 5 6 7 10
28 27 24 23 23 21 21 20 19 18 23 26 27 25 19 19 16 20 18 18 16 16 18 19 18 14 12 10 8 7 6 6 6 5 4 4 4 4 5 5 5 5 5 4 4 5 6 6 7
34 27 26 24 24 24 22 21 20 19 18 18 16 18 19 17 20 21 20 21 20 20 19 16 14 10 9 8 7 7 6 6 5 5 5 5 5 5 6 6 6 6 7 7 8 7 7 7 8
34 26 25 23 20 16 16 17 20 18 17 16 16 18 20 21 23 23 23 23 20 22 17 14 11 10 9 8 8 7 6 6 6 6 6 6 6 6 6 7 9 10 10 12 14 13 11 9 6
39 28 24 20 21 22 19 18 17 18 18 20 20 20 20 23 24 24 24 25 24 18 14 12 11 10 11 11 10 9 8 8 8 7 7 7 6 7 10 14 17 16 15 16 17 17 16 16 17
47 40 30 22 24 23 19 19 18 20 18 19 19 18 18 21 23 26 28 28 23 16 13 14 14 16 16 15 14 12 10 9 8 8 8 9 15 21 27 28 25 21 20 21 22 22 22 26 31
44 43 33 33 30 23 22 22 20 20 20 22 22 23 25 26 27 29 34 32 23 14 15 18 19 18 16 15 13 11 9 10 11 12 17 25 29 31 33 30 33 33 47 52 58 61 64 61 66
47 33 36 36 30 28 25 26 22 22 22 22 22 22 26 27 29 34 40 40 21 17 20 20 20 20 19 16 12 10 11 15 17 20 27 33 31 29 31 51 44 56 66 76 80 83 83 80 80
51 38 40 37 31 35 34 28 27 25 22 21 21 22 23 27 33 38 43 42 18 22 23 25 26 27 21 15 14 14 21 24 26 32 32 21 21 14 48 54 61 65 69 77 83 86 90 91 90
54 52 48 36 39 46 40 36 32 28 24 22 23 24 26 26 36 44 47 39 22 28 32 32 33 30 22 18 18 23 28 28 34 32 14 17 12 18 43 44 72 76 82 81 85 89 90 90 93
69 54 47 50 49 55 43 39 36 33 29 32 34 32 28 26 41 48 48 48 27 34 34 34 44 41 32 21 20 28 31 34 36 20 10 11 9 9 35 40 72 81 83 79 81 89 91 96 98
64 66 56 85 66 52 41 38 38 37 36 36 34 29 23 26 46 52 52 51 31 39 43 49 53 45 40 27 21 31 34 38 30 16 10 10 9 8 7 25 22 79 88 90 89 91 91 94 98
80 81 72 58 64 79 43 36 36 34 31 28 26 24 23 26 48 55 53 38 38 46 54 54 52 48 45 30 31 34 38 41 33 18 10 10 10 10 8 9 8 16 80 93 96 94 95 95 95
97 79 76 96 96 93 72 52 40 33 30 27 26 24 27 42 55 50 38 40 43 42 54 53 54 49 45 33 39 43 41 42 42 19 11 10 10 10 10 9 8 7 21 83 88 94 96 94 95
97 100 98 97 97 94 82 48 37 34 30 30 30 29 35 51 42 38 42 38 40 57 56 53 47 46 37 35 43 46 44 44 42 20 11 10 9 10 10 10 10 10 7 7 12 60 83 96 97
55 68 96 97 98 94 57 53 38 31 36 36 35 41 42 38 41 45 44 47 53 56 54 48 43 37 34 44 44 50 48 47 47 26 11 10 10 11 11 11 11 11 11 10 7 6 7 12 89

GFSSGP_700_rhum_156.txt.gz
RH
11 13 15 14 13 12 20 22 20 30 47 52 65 54 54 51 47 52 52 50 46 42 46 51 49 50 40 43 46 31 25 25 26 26 27 27 28 28 30 33 36 36 30 24 21 18 17 16 17
13 14 16 16 15 18 24 22 23 26 32 40 68 64 62 62 56 59 52 46 45 46 47 39 47 51 48 46 28 28 27 27 28 28 26 25 25 26 26 28 34 41 44 39 33 30 24 20 18
14 15 16 17 17 23 22 24 24 24 30 42 57 66 67 65 63 43 53 49 50 55 49 36 52 54 46 30 30 29 28 29 29 29 28 27 26 25 24 24 25 32 42 48 52 51 43 31 31
14 17 18 18 18 26 23 24 25 23 32 44 40 46 50 42 45 55 38 42 41 40 42 60 60 43 31 30 30 30 30 30 29 28 28 27 26 24 24 24 24 24 28 42 50 54 56 49 40
14 15 20 21 20 25 26 23 25 23 25 26 29 26 24 37 49 63 42 37 46 59 61 52 37 32 28 28 28 29 30 30 30 29 26 25 25 25 23 22 22 22 21 30 44 53 57 60 58
17 15 21 21 20 24 26 25 43 31 31 34 29 32 26 27 42 50 55 51 48 43 43 35 32 28 27 27 29 30 30 28 26 25 26 26 24 20 17 17 17 18 16 17 30 51 59 64 63
13 18 22 24 22 24 26 24 24 33 37 30 28 34 22 23 24 32 33 35 33 33 34 30 28 28 30 31 31 29 25 25 26 25 22 20 17 16 15 15 14 14 15 16 16 21 40 62 68
15 20 20 24 23 26 27 24 26 31 26 32 32 34 24 26 26 34 38 43 50 44 32 31 31 32 32 30 26 25 26 26 24 19 17 16 16 16 15 15 15 15 14 14 14 15 18 40 71
20 22 21 22 23 23 28 26 24 27 30 26 26 29 30 36 38 38 39 53 50 38 36 36 36 32 26 25 26 26 26 22 18 17 16 16 16 16 16 16 16 16 16 16 17 16 13 15 24
23 21 21 21 25 27 26 26 25 27 29 34 30 28 29 36 42 46 49 50 42 38 37 33 26 25 26 27 26 23 19 18 18 18 17 17 17 18 18 18 18 17 17 17 17 17 17 18 16
24 20 22 22 28 28 26 25 25 29 31 30 27 28 30 30 34 36 41 41 38 39 28 26 27 27 25 22 20 19 19 18 18 18 19 20 20 20 20 20 20 20 19 18 18 18 18 17 18
22 23 26 20 29 29 28 25 24 24 24 24 23 23 27 25 25 33 39 40 41 28 26 28 25 19 19 19 18 19 19 20 20 18 15 13 12 11 10 10 10 11 13 16 19 20 20 20 19
21 23 24 24 26 27 28 27 25 25 24 24 25 26 26 27 27 29 35 36 29 28 27 19 18 18 18 19 20 21 20 15 12 11 9 8 7 6 6 6 5 5 5 5 6 6 8 11 17
30 21 24 22 22 25 26 27 27 26 25 25 25 26 26 28 30 31 32 30 28 20 17 17 17 19 21 22 20 14 11 9 8 7 7 6 6 5 5 4 4 4 4 3 3 3 3 4 4
36 26 25 24 22 22 23 24 24 26 26 26 26 25 27 29 30 29 29 23 17 18 17 19 20 22 22 15 11 9 9 9 8 8 7 6 6 5 4 4 3 3 3 3 3 3 3 3 3
35 31 27 22 24 23 23 22 21 21 21 20 22 27 29 28 28 22 19 18 18 18 19 21 22 19 13 10 10 11 12 11 10 9 8 7 6 5 5 5 4 4 4 4 4 4 4 4 4
49 42 31 29 26 25 24 23 22 21 20 18 16 23 25 24 22 20 20 21 22 21 22 22 18 13 11 13 16 16 15 15 14 11 9 8 7 6 5 5 4 4 4 4 4 5 6 5 5
49 48 42 37 29 25 24 24 23 23 22 20 16 16 17 19 24 22 22 23 24 24 22 21 14 12 14 18 18 17 20 19 13 10 8 7 6 6 6 6 8 8 10 11 12 12 13 12 10
54 49 33 30 28 24 23 22 21 19 19 20 17 17 18 19 24 26 23 25 26 24 24 18 12 15 19 19 19 22 23 16 11 9 8 8 9 11 14 17 18 18 17 15 17 20 24 29 30
70 67 57 45 31 27 26 23 21 21 20 16 16 17 19 20 21 26 26 26 28 28 23 13 14 19 19 21 23 25 22 13 10 9 9 11 14 17 19 22 27 26 23 31 39 45 49 54 61
75 78 63 51 34 29 33 25 22 20 20 22 21 19 22 22 22 24 28 29 33 30 17 14 19 21 24 26 25 21 14 11 9 11 14 18 22 24 25 26 23 26 39 48 51 53 56 60 71
79 70 67 50 42 44 31 30 25 21 20 20 21 20 21 22 21 25 32 34 39 26 14 20 24 29 30 27 23 19 12 10 10 13 18 24 25 26 17 19 17 34 53 58 62 61 65 69 71
66 56 64 49 40 43 36 32 30 27 24 22 20 21 22 21 21 24 31 39 43 23 20 27 33 32 30 27 26 18 12 11 14 19 27 22 22 16 10 7 10 24 28 66 65 68 71 77 74
77 80 59 56 53 47 40 36 31 31 23 24 22 21 21 20 22 26 35 43 47 25 27 34 33 31 31 32 26 17 15 15 18 28 32 15 11 9 9 8 10 10 16 66 70 80 83 84 82
82 91 58 54 54 54 39 39 34 32 30 27 26 25 23 22 22 25 33 40 49 25 33 34 32 36 40 29 23 19 19 20 27 36 33 16 10 9 9 8 8 8 12 64 74 78 84 87 85
78 72 53 73 68 57 43 44 41 39 38 34 29 25 28 31 30 28 32 47 47 31 38 35 38 48 42 33 23 18 26 31 35 40 40 17 10 9 8 8 9 9 8 21 45 78 84 87 85
84 81 74 68 83 86 50 43 43 41 40 37 36 35 31 27 29 29 33 53 52 42 39 41 51 50 43 32 26 23 34 36 40 43 44 19 10 9 8 9 9 9 9 8 8 15 27 87 92
97 75 84 98 97 95 79 63 46 39 37 37 35 31 27 26 26 31 48 57 56 52 45 46 54 50 42 38 26 32 38 40 44 46 46 22 10 9 9 10 9 9 10 10 9 8 23 82 83
98 100 99 99 98 93 94 60 47 42 44 42 33 28 27 27 31 41 57 58 52 51 52 53 53 48 44 31 28 38 41 43 49 48 49 27 10 10 10 11 10 10 10 10 10 10 13 16 18
100 100 100 97 98 99 98 74 52 36 33 30 32 32 31 36 48 56 50 45 46 47 51 56 58 48 41 31 33 38 40 46 53 49 54 33 11 11 11 12 12 13 12 11 11 10 11 11 10

GFSSGP_700_rhum_159.txt.gz
RH
13 14 15 13 13 12 15 19 22 26 26 34 44 43 38 42 38 44 42 48 41 44 56 56 43 43 39 38 41 44 30 29 28 28 28 27 25 25 25 25 26 27 34 36 32 30 22 23 18
12 15 16 16 14 15 20 22 23 28 32 33 42 46 45 53 49 45 47 46 46 55 60 61 48 55 51 49 50 29 28 28 29 29 29 28 28 27 25 25 25 25 29 38 42 43 40 44 31
11 16 19 18 15 19 21 24 28 40 42 37 42 51 51 53 54 50 43 48 52 58 48 56 46 50 61 58 35 27 28 29 29 30 29 28 28 27 26 25 25 25 25 32 44 50 55 55 50
10 16 20 19 16 24 22 25 23 27 30 40 46 57 51 53 48 54 37 56 51 51 56 57 41 61 65 43 27 28 28 30 31 30 30 29 26 25 25 25 24 23 24 24 28 42 55 62 60
12 16 20 21 18 25 24 22 27 26 26 39 54 40 33 43 38 34 44 54 49 47 41 40 57 61 44 30 29 29 30 30 30 30 26 25 26 25 23 19 17 18 20 20 20 23 36 52 60
11 15 20 20 19 24 26 24 22 28 27 28 38 34 32 31 32 34 41 41 44 47 52 57 55 41 31 27 29 30 30 30 27 25 26 25 22 20 17 16 15 15 15 15 16 17 20 26 38
9 13 18 21 18 24 28 25 23 26 27 27 30 32 28 26 25 28 41 43 42 40 41 46 36 31 26 27 30 30 30 26 26 27 25 20 17 16 16 16 15 15 15 14 14 14 15 17 20
9 11 16 21 19 22 28 26 29 31 29 30 31 28 22 24 24 28 30 35 35 32 34 34 29 27 28 30 32 28 25 27 27 25 19 17 17 16 16 16 15 15 15 14 14 15 15 14 14
11 14 11 21 19 21 28 29 34 27 31 30 26 23 23 30 29 29 33 37 38 41 37 31 30 30 31 30 26 26 28 27 21 17 16 16 15 15 14 15 15 15 15 15 15 15 15 15 16
16 14 14 18 23 27 27 27 27 28 29 29 24 27 24 28 31 32 33 36 47 48 41 34 34 32 27 26 28 26 21 18 16 15 15 16 16 17 17 17 16 14 14 15 15 16 16 17 17
19 16 16 20 26 30 28 27 26 29 32 28 27 29 30 31 28 35 39 40 46 42 37 37 28 26 27 27 22 19 17 16 16 18 18 17 15 12 11 10 9 9 8 8 8 9 9 10 11
25 19 19 20 25 28 30 28 26 29 32 36 36 40 35 26 25 33 33 45 43 38 39 28 26 28 25 19 18 16 17 19 18 13 10 9 8 8 7 7 7 6 6 6 6 5 5 6 6
32 27 22 25 24 25 28 29 27 25 27 25 30 26 25 26 29 29 34 38 39 38 29 28 28 22 19 17 18 19 18 12 10 9 9 9 8 8 7 7 6 5 5 4 4 4 3 3 3
28 32 28 23 24 23 25 27 28 27 26 26 25 25 26 27 29 30 32 33 33 30 29 26 20 19 19 20 20 14 10 10 12 13 14 14 12 10 8 7 6 5 5 4 4 4 3 3 3
28 34 36 28 23 24 23 26 27 27 27 26 26 25 27 28 31 33 34 32 31 29 20 19 19 20 21 21 13 10 13 16 18 20 21 19 15 12 8 7 6 5 4 4 4 3 3 3 3
34 38 32 30 27 25 24 25 24 24 23 25 26 26 26 27 31 32 30 25 23 18 19 20 22 23 23 14 10 14 18 19 22 23 23 18 13 9 8 6 5 5 5 5 4 4 4 4 4
36 46 42 36 30 27 25 25 24 23 22 21 21 20 20 26 30 30 26 19 19 20 20 22 24 26 16 11 14 19 20 23 24 24 23 16 9 7 6 5 6 7 8 8 8 8 8 7 7
37 46 45 44 34 38 31 27 26 25 24 24 22 20 19 21 29 31 25 19 21 22 23 24 24 21 12 13 19 20 23 25 24 22 18 11 7 6 6 7 9 13 18 18 16 14 17 20 19
42 46 46 39 38 33 31 28 26 24 22 22 23 23 21 19 24 25 26 24 22 24 26 26 26 17 12 17 20 24 26 24 22 18 10 7 7 7 9 13 17 20 18 18 18 17 22 34 35
65 64 65 51 47 56 46 33 26 26 23 21 19 20 20 18 19 20 22 26 24 25 28 28 24 13 15 20 25 26 24 23 20 13 8 8 8 9 12 17 21 16 9 19 25 37 42 47 46
70 74 68 68 57 62 58 48 35 24 24 23 22 22 21 17 19 20 22 26 29 26 30 30 18 13 20 27 28 25 25 23 17 11 9 9 10 13 20 21 14 8 6 15 20 45 53 52 54
70 66 68 79 83 66 46 35 31 26 22 22 20 20 18 20 21 24 27 30 32 30 34 27 14 20 28 30 29 29 27 19 13 10 10 11 15 20 22 16 9 7 7 10 16 20 46 55 59
75 66 67 72 78 75 57 44 36 31 28 23 20 19 19 20 20 21 23 30 39 36 36 18 19 31 33 34 35 30 22 16 12 12 12 16 26 21 16 11 8 7 7 7 12 13 29 57 60
78 84 77 79 63 59 55 46 36 34 27 24 21 19 19 20 20 22 27 39 42 41 32 17 30 36 37 40 38 32 27 16 14 15 18 27 33 24 12 8 8 7 7 7 7 8 11 49 65
84 88 96 82 65 59 44 46 36 33 31 27 26 23 20 20 21 22 24 29 43 44 28 24 38 38 43 45 40 33 21 16 17 21 27 34 38 25 10 8 8 7 6 6 7 8 8 62 70
80 84 88 80 58 47 45 41 37 37 36 33 30 26 27 27 26 24 24 32 40 48 41 35 39 42 49 46 39 30 21 19 22 28 31 36 40 28 10 8 8 7 7 6 7 9 22 28 44
97 99 90 98 82 83 54 42 41 40 40 38 38 36 31 26 25 24 27 32 47 52 27 42 45 51 52 46 38 30 23 23 29 32 33 39 44 24 10 9 8 8 7 7 7 8 9 9 31
97 94 96 98 96 88 58 67 53 45 41 41 40 38 34 31 32 34 33 34 50 51 34 51 51 63 60 46 42 32 26 29 31 33 38 44 47 25 10 10 10 9 10 9 9 8 8 9 18
90 99 100 99 91 65 60 65 52 52 52 47 39 36 34 32 30 28 30 37 58 46 36 58 71 70 56 48 44 34 30 32 33 37 43 46 50 26 10 11 12 12 12 11 11 11 10 9 9
98 100 100 98 98 94 78 67 42 40 45 46 44 33 30 29 28 28 32 41 60 46 67 69 60 58 61 49 44 37 33 32 37 41 46 51 55 20 11 13 13 13 13 13 13 12 12 11 10